Wetterdaten: Donnerstag, 17.08.2023
Datum Zeit Temp. Aussen Temp. o. S. Temp +5cm Feuchte Auss Luftdruck Regen Sonnenschein Regendauer Solar Windben Empfang
17.08.2023 00:00 20,1 C 18,3 C 13,9 C 90 % 1019,2 hPa 0,2 l/m 0 min 2 min 0 W/m 3,2 km/h (1 Bft) 97,83 %
17.08.2023 00:02 20,0 C 17,8 C 13,9 C 91 % 1019,2 hPa 0,0 l/m 0 min 2 min 0 W/m 6,4 km/h (2 Bft) 97,78 %
17.08.2023 00:04 19,9 C 17,8 C 13,9 C 91 % 1019,1 hPa 1,0 l/m 0 min 2 min 0 W/m 3,2 km/h (1 Bft) 97,87 %
17.08.2023 00:08 19,7 C 17,8 C 13,9 C 92 % 1019,1 hPa 0,8 l/m 0 min 4 min 0 W/m 6,4 km/h (2 Bft) 95,40 %
17.08.2023 00:10 19,6 C 17,8 C 13,9 C 92 % 1019,0 hPa 0,6 l/m 0 min 2 min 0 W/m 12,9 km/h (3 Bft) 93,62 %
17.08.2023 00:12 19,4 C 17,2 C 13,9 C 92 % 1019,0 hPa 0,4 l/m 0 min 2 min 0 W/m 6,4 km/h (2 Bft) 95,74 %
17.08.2023 00:14 19,3 C 17,2 C 13,3 C 92 % 1019,0 hPa 0,2 l/m 0 min 2 min 0 W/m 6,4 km/h (2 Bft) 97,83 %
17.08.2023 00:16 19,2 C 17,2 C 13,3 C 93 % 1019,0 hPa 0,2 l/m 0 min 2 min 0 W/m 9,7 km/h (2 Bft) 97,87 %
17.08.2023 00:18 19,1 C 17,2 C 13,3 C 93 % 1019,0 hPa 0,2 l/m 0 min 2 min 0 W/m 3,2 km/h (1 Bft) 97,87 %
17.08.2023 00:20 19,0 C 16,7 C 13,3 C 93 % 1019,0 hPa 0,0 l/m 0 min 2 min 0 W/m 16,1 km/h (3 Bft) 93,62 %
17.08.2023 00:22 18,9 C 17,2 C 13,3 C 94 % 1019,1 hPa 0,2 l/m 0 min 2 min 0 W/m 6,4 km/h (2 Bft) 97,87 %
17.08.2023 00:24 18,8 C 17,2 C 13,3 C 94 % 1019,2 hPa 0,0 l/m 0 min 2 min 0 W/m 12,9 km/h (3 Bft) 97,87 %
17.08.2023 00:26 18,7 C 17,2 C 13,3 C 94 % 1019,2 hPa 0,2 l/m 0 min 2 min 0 W/m 9,7 km/h (2 Bft) 93,48 %
17.08.2023 00:28 18,7 C 17,2 C 13,3 C 94 % 1019,2 hPa 0,0 l/m 0 min 2 min 0 W/m 3,2 km/h (1 Bft) 93,62 %
17.08.2023 00:30 18,6 C 16,7 C 13,3 C 94 % 1019,2 hPa 0,0 l/m 0 min 2 min 0 W/m 9,7 km/h (2 Bft) 95,74 %
17.08.2023 00:32 18,6 C 17,2 C 13,3 C 94 % 1019,2 hPa 0,2 l/m 0 min 2 min 0 W/m 6,4 km/h (2 Bft) 93,62 %
17.08.2023 00:34 18,5 C 16,7 C 13,3 C 95 % 1019,2 hPa 0,0 l/m 0 min 2 min 0 W/m 6,4 km/h (2 Bft) 95,74 %
17.08.2023 00:36 18,4 C 16,7 C 13,3 C 95 % 1019,2 hPa 0,0 l/m 0 min 2 min 0 W/m 16,1 km/h (3 Bft) 93,62 %
17.08.2023 00:38 18,4 C 16,7 C 13,3 C 95 % 1019,2 hPa 0,0 l/m 0 min 2 min 0 W/m 6,4 km/h (2 Bft) 95,74 %
17.08.2023 00:40 18,3 C 16,7 C 13,3 C 95 % 1019,2 hPa 0,0 l/m 0 min 2 min 0 W/m 6,4 km/h (2 Bft) 95,65 %
17.08.2023 00:42 18,3 C 16,7 C 13,3 C 95 % 1019,2 hPa 0,0 l/m 0 min 2 min 0 W/m 3,2 km/h (1 Bft) 95,74 %
17.08.2023 00:44 18,3 C 16,7 C 13,3 C 95 % 1019,1 hPa 0,0 l/m 0 min 2 min 0 W/m 6,4 km/h (2 Bft) 89,36 %
17.08.2023 00:46 18,3 C 16,7 C 13,3 C 95 % 1019,1 hPa 0,0 l/m 0 min 0 min 0 W/m 3,2 km/h (1 Bft) 95,74 %
17.08.2023 00:48 18,3 C 16,7 C 13,3 C 95 % 1019,2 hPa 0,0 l/m 0 min 0 min 0 W/m 6,4 km/h (2 Bft) 95,74 %
17.08.2023 00:50 18,3 C 16,7 C 13,3 C 96 % 1019,2 hPa 0,0 l/m 0 min 0 min 0 W/m 3,2 km/h (1 Bft) 95,74 %
17.08.2023 00:52 18,2 C 16,7 C 13,3 C 96 % 1019,3 hPa 0,0 l/m 0 min 0 min 0 W/m 3,2 km/h (1 Bft) 95,74 %
17.08.2023 00:54 18,2 C 16,7 C 13,3 C 96 % 1019,3 hPa 0,0 l/m 0 min 2 min 0 W/m 3,2 km/h (1 Bft) 95,65 %
17.08.2023 00:56 18,2 C 16,7 C 13,3 C 96 % 1019,3 hPa 0,2 l/m 0 min 2 min 0 W/m 6,4 km/h (2 Bft) 95,74 %
17.08.2023 00:58 18,3 C 16,7 C 13,3 C 96 % 1019,4 hPa 0,0 l/m 0 min 2 min 0 W/m 3,2 km/h (1 Bft) 95,74 %
17.08.2023 01:00 18,2 C 16,7 C 13,3 C 96 % 1019,3 hPa 0,0 l/m 0 min 2 min 0 W/m 3,2 km/h (1 Bft) 95,74 %
17.08.2023 01:02 18,2 C 16,7 C 13,3 C 96 % 1019,3 hPa 0,0 l/m 0 min 2 min 0 W/m 3,2 km/h (1 Bft) 97,87 %
17.08.2023 01:04 18,2 C 16,7 C 13,3 C 96 % 1019,3 hPa 0,0 l/m 0 min 2 min 0 W/m 3,2 km/h (1 Bft) 95,83 %
17.08.2023 01:06 18,2 C 16,7 C 13,3 C 96 % 1019,3 hPa 0,0 l/m 0 min 2 min 0 W/m 12,9 km/h (3 Bft) 96,61 %
17.08.2023 01:08 18,2 C 16,7 C 13,3 C 96 % 1019,4 hPa 0,0 l/m 0 min 2 min 0 W/m 3,2 km/h (1 Bft) 94,29 %
17.08.2023 01:10 18,1 C 16,7 C 13,3 C 96 % 1019,4 hPa 0,0 l/m 0 min 2 min 0 W/m 3,2 km/h (1 Bft) 100,00 %
17.08.2023 01:12 18,2 C 16,7 C 13,3 C 96 % 1019,4 hPa 0,2 l/m 0 min 2 min 0 W/m 6,4 km/h (2 Bft) 97,87 %
17.08.2023 01:14 18,1 C 16,7 C 13,3 C 96 % 1019,3 hPa 0,2 l/m 0 min 2 min 0 W/m 12,9 km/h (3 Bft) 95,74 %
17.08.2023 01:16 18,1 C 16,7 C 13,3 C 96 % 1019,3 hPa 0,0 l/m 0 min 2 min 0 W/m 6,4 km/h (2 Bft) 97,87 %
17.08.2023 01:18 18,1 C 16,7 C 13,3 C 96 % 1019,4 hPa 0,0 l/m 0 min 2 min 0 W/m 12,9 km/h (3 Bft) 97,83 %
17.08.2023 01:20 18,1 C 16,7 C 13,3 C 96 % 1019,4 hPa 0,2 l/m 0 min 2 min 0 W/m 6,4 km/h (2 Bft) 100,00 %
17.08.2023 01:22 18,0 C 16,7 C 13,3 C 96 % 1019,4 hPa 0,0 l/m 0 min 2 min 0 W/m 6,4 km/h (2 Bft) 100,00 %
17.08.2023 01:24 18,0 C 16,7 C 13,3 C 96 % 1019,4 hPa 0,2 l/m 0 min 2 min 0 W/m 9,7 km/h (2 Bft) 97,87 %
17.08.2023 01:26 18,0 C 16,7 C 13,3 C 96 % 1019,4 hPa 0,2 l/m 0 min 2 min 0 W/m 6,4 km/h (2 Bft) 97,87 %
17.08.2023 01:28 18,0 C 16,7 C 13,3 C 97 % 1019,4 hPa 0,4 l/m 0 min 2 min 0 W/m 6,4 km/h (2 Bft) 100,00 %
17.08.2023 01:30 18,0 C 16,7 C 13,3 C 97 % 1019,4 hPa 0,0 l/m 0 min 2 min 0 W/m 6,4 km/h (2 Bft) 95,65 %
17.08.2023 01:32 17,9 C 16,7 C 13,3 C 97 % 1019,4 hPa 0,2 l/m 0 min 2 min 0 W/m 3,2 km/h (1 Bft) 100,00 %
17.08.2023 01:34 17,9 C 16,7 C 13,3 C 97 % 1019,4 hPa 0,2 l/m 0 min 2 min 0 W/m 3,2 km/h (1 Bft) 100,00 %
17.08.2023 01:36 17,9 C 16,7 C 13,3 C 97 % 1019,4 hPa 0,2 l/m 0 min 2 min 0 W/m 19,3 km/h (3 Bft) 95,74 %
17.08.2023 01:38 17,9 C 16,7 C 13,3 C 97 % 1019,4 hPa 0,2 l/m 0 min 2 min 0 W/m 12,9 km/h (3 Bft) 95,74 %
17.08.2023 01:40 17,9 C 16,7 C 13,3 C 97 % 1019,3 hPa 0,2 l/m 0 min 2 min 0 W/m 6,4 km/h (2 Bft) 97,87 %
17.08.2023 01:42 17,9 C 16,7 C 13,3 C 97 % 1019,4 hPa 0,2 l/m 0 min 2 min 0 W/m 3,2 km/h (1 Bft) 93,62 %
17.08.2023 01:44 17,8 C 16,7 C 13,3 C 97 % 1019,5 hPa 0,4 l/m 0 min 2 min 0 W/m 9,7 km/h (2 Bft) 100,00 %
17.08.2023 01:46 17,9 C 16,7 C 13,3 C 97 % 1019,5 hPa 0,4 l/m 0 min 2 min 0 W/m 3,2 km/h (1 Bft) 97,87 %
17.08.2023 01:48 17,9 C 16,7 C 13,3 C 97 % 1019,5 hPa 0,4 l/m 0 min 2 min 0 W/m 6,4 km/h (2 Bft) 93,62 %
17.08.2023 01:50 17,8 C 16,7 C 13,3 C 97 % 1019,5 hPa 0,6 l/m 0 min 2 min 0 W/m 6,4 km/h (2 Bft) 97,87 %
17.08.2023 01:52 17,8 C 16,7 C 13,3 C 97 % 1019,4 hPa 0,6 l/m 0 min 2 min 0 W/m 3,2 km/h (1 Bft) 95,74 %
17.08.2023 01:54 17,8 C 16,7 C 13,3 C 97 % 1019,4 hPa 0,6 l/m 0 min 2 min 0 W/m 3,2 km/h (1 Bft) 95,74 %
17.08.2023 01:56 17,8 C 16,7 C 13,3 C 97 % 1019,4 hPa 0,8 l/m 0 min 2 min 0 W/m 3,2 km/h (1 Bft) 97,83 %
17.08.2023 01:58 17,8 C 16,7 C 13,3 C 97 % 1019,3 hPa 1,2 l/m 0 min 2 min 0 W/m 6,4 km/h (2 Bft) 97,87 %
17.08.2023 02:00 17,8 C 16,7 C 13,3 C 97 % 1019,4 hPa 0,8 l/m 0 min 2 min 0 W/m 6,4 km/h (2 Bft) 95,74 %
17.08.2023 02:02 17,8 C 16,7 C 13,3 C 97 % 1019,3 hPa 0,8 l/m 0 min 2 min 0 W/m 6,4 km/h (2 Bft) 97,87 %
17.08.2023 02:04 17,8 C 16,7 C 13,3 C 97 % 1019,3 hPa 0,8 l/m 0 min 2 min 0 W/m 3,2 km/h (1 Bft) 97,96 %
17.08.2023 02:06 17,7 C 16,7 C 12,8 C 97 % 1019,3 hPa 1,2 l/m 0 min 2 min 0 W/m 9,7 km/h (2 Bft) 97,87 %
17.08.2023 02:08 17,7 C 16,7 C 12,8 C 97 % 1019,3 hPa 0,8 l/m 0 min 2 min 0 W/m 6,4 km/h (2 Bft) 100,00 %
17.08.2023 02:10 17,7 C 16,7 C 12,8 C 97 % 1019,3 hPa 0,4 l/m 0 min 2 min 0 W/m 6,4 km/h (2 Bft) 100,00 %
17.08.2023 02:14 17,6 C 16,1 C 12,8 C 97 % 1019,3 hPa 1,2 l/m 0 min 4 min 0 W/m 6,4 km/h (2 Bft) 100,00 %
17.08.2023 02:16 17,6 C 16,1 C 12,8 C 98 % 1019,3 hPa 0,4 l/m 0 min 2 min 0 W/m 16,1 km/h (3 Bft) 97,56 %
17.08.2023 02:18 17,6 C 16,1 C 12,8 C 98 % 1019,3 hPa 0,4 l/m 0 min 2 min 0 W/m 16,1 km/h (3 Bft) 100,00 %
17.08.2023 02:20 17,5 C 16,1 C 12,8 C 98 % 1019,4 hPa 0,2 l/m 0 min 2 min 0 W/m 12,9 km/h (3 Bft) 97,87 %
17.08.2023 02:22 17,5 C 16,1 C 12,8 C 98 % 1019,4 hPa 0,2 l/m 0 min 2 min 0 W/m 16,1 km/h (3 Bft) 100,00 %
17.08.2023 02:24 17,4 C 16,1 C 12,8 C 98 % 1019,4 hPa 0,2 l/m 0 min 2 min 0 W/m 6,4 km/h (2 Bft) 97,87 %
17.08.2023 02:26 17,4 C 16,1 C 12,8 C 98 % 1019,4 hPa 0,0 l/m 0 min 2 min 0 W/m 12,9 km/h (3 Bft) 100,00 %
17.08.2023 02:28 17,4 C 16,1 C 12,8 C 98 % 1019,4 hPa 0,2 l/m 0 min 2 min 0 W/m 6,4 km/h (2 Bft) 100,00 %
17.08.2023 02:30 17,4 C 16,1 C 12,8 C 98 % 1019,3 hPa 0,0 l/m 0 min 2 min 0 W/m 9,7 km/h (2 Bft) 97,87 %
17.08.2023 02:32 17,4 C 16,1 C 12,8 C 98 % 1019,3 hPa 0,2 l/m 0 min 2 min 0 W/m 12,9 km/h (3 Bft) 100,00 %
17.08.2023 02:34 17,4 C 16,1 C 12,8 C 98 % 1019,3 hPa 0,0 l/m 0 min 2 min 0 W/m 9,7 km/h (2 Bft) 100,00 %
17.08.2023 02:36 17,3 C 16,1 C 12,8 C 98 % 1019,2 hPa 0,0 l/m 0 min 2 min 0 W/m 6,4 km/h (2 Bft) 97,87 %
17.08.2023 02:38 17,3 C 16,1 C 12,8 C 98 % 1019,1 hPa 0,0 l/m 0 min 2 min 0 W/m 6,4 km/h (2 Bft) 100,00 %
17.08.2023 02:40 17,3 C 16,1 C 12,8 C 98 % 1019,1 hPa 0,2 l/m 0 min 0 min 0 W/m 19,3 km/h (3 Bft) 100,00 %
17.08.2023 02:42 17,3 C 16,1 C 12,8 C 98 % 1019,1 hPa 0,0 l/m 0 min 0 min 0 W/m 16,1 km/h (3 Bft) 95,74 %
17.08.2023 02:44 17,3 C 16,1 C 12,8 C 98 % 1019,1 hPa 0,0 l/m 0 min 2 min 0 W/m 16,1 km/h (3 Bft) 100,00 %
17.08.2023 02:46 17,3 C 16,1 C 12,8 C 98 % 1019,1 hPa 0,0 l/m 0 min 0 min 0 W/m 12,9 km/h (3 Bft) 100,00 %
17.08.2023 02:48 17,3 C 16,1 C 12,8 C 98 % 1019,1 hPa 0,0 l/m 0 min 0 min 0 W/m 16,1 km/h (3 Bft) 95,74 %
17.08.2023 02:50 17,3 C 16,1 C 12,8 C 98 % 1019,1 hPa 0,0 l/m 0 min 0 min 0 W/m 9,7 km/h (2 Bft) 100,00 %
17.08.2023 02:52 17,2 C 16,1 C 12,8 C 98 % 1019,1 hPa 0,0 l/m 0 min 0 min 0 W/m 9,7 km/h (2 Bft) 100,00 %
17.08.2023 02:54 17,2 C 16,1 C 12,8 C 98 % 1019,2 hPa 0,0 l/m 0 min 0 min 0 W/m 6,4 km/h (2 Bft) 100,00 %
17.08.2023 02:56 17,2 C 16,1 C 12,8 C 98 % 1019,1 hPa 0,0 l/m 0 min 0 min 0 W/m 9,7 km/h (2 Bft) 97,87 %
17.08.2023 02:58 17,2 C 16,1 C 12,8 C 98 % 1019,1 hPa 0,0 l/m 0 min 0 min 0 W/m 6,4 km/h (2 Bft) 100,00 %
17.08.2023 03:00 17,2 C 16,1 C 12,8 C 98 % 1019,1 hPa 0,0 l/m 0 min 0 min 0 W/m 12,9 km/h (3 Bft) 97,87 %
17.08.2023 03:02 17,2 C 16,1 C 12,8 C 98 % 1019,1 hPa 0,0 l/m 0 min 0 min 0 W/m 12,9 km/h (3 Bft) 100,00 %
17.08.2023 03:04 17,2 C 16,1 C 12,8 C 98 % 1019,0 hPa 0,0 l/m 0 min 0 min 0 W/m 9,7 km/h (2 Bft) 94,00 %
17.08.2023 03:09 17,2 C 16,1 C 12,8 C 98 % 1019,2 hPa 0,0 l/m 0 min 0 min 0 W/m 19,3 km/h (3 Bft) 95,16 %
17.08.2023 03:10 17,2 C 16,1 C 12,8 C 98 % 1019,2 hPa 0,0 l/m 0 min 0 min 0 W/m 12,9 km/h (3 Bft) 100,00 %
17.08.2023 03:12 17,2 C 16,1 C 12,8 C 98 % 1019,2 hPa 0,0 l/m 0 min 0 min 0 W/m 3,2 km/h (1 Bft) 95,74 %
17.08.2023 03:14 17,2 C 16,1 C 12,8 C 98 % 1019,1 hPa 0,0 l/m 0 min 0 min 0 W/m 9,7 km/h (2 Bft) 93,62 %
17.08.2023 03:16 17,2 C 16,1 C 12,8 C 98 % 1019,1 hPa 0,0 l/m 0 min 0 min 0 W/m 9,7 km/h (2 Bft) 93,48 %
17.08.2023 03:18 17,2 C 16,1 C 12,8 C 98 % 1019,1 hPa 0,0 l/m 0 min 0 min 0 W/m 9,7 km/h (2 Bft) 95,74 %
17.08.2023 03:20 17,2 C 16,1 C 12,8 C 98 % 1019,1 hPa 0,0 l/m 0 min 0 min 0 W/m 6,4 km/h (2 Bft) 93,62 %
17.08.2023 03:22 17,2 C 16,1 C 12,8 C 98 % 1019,1 hPa 0,0 l/m 0 min 0 min 0 W/m 6,4 km/h (2 Bft) 93,62 %
17.08.2023 03:24 17,2 C 16,1 C 12,8 C 98 % 1019,1 hPa 0,0 l/m 0 min 0 min 0 W/m 9,7 km/h (2 Bft) 95,74 %
17.08.2023 03:26 17,2 C 16,1 C 12,8 C 98 % 1019,1 hPa 0,0 l/m 0 min 0 min 0 W/m 12,9 km/h (3 Bft) 97,87 %
17.08.2023 03:28 17,1 C 16,1 C 12,8 C 98 % 1019,1 hPa 0,0 l/m 0 min 0 min 0 W/m 9,7 km/h (2 Bft) 93,48 %
17.08.2023 03:30 17,2 C 16,1 C 12,8 C 98 % 1019,0 hPa 0,0 l/m 0 min 0 min 0 W/m 6,4 km/h (2 Bft) 89,36 %
17.08.2023 03:32 17,1 C 16,1 C 12,8 C 98 % 1019,0 hPa 0,0 l/m 0 min 0 min 0 W/m 6,4 km/h (2 Bft) 93,62 %
17.08.2023 03:34 17,1 C 16,1 C 12,8 C 98 % 1019,0 hPa 0,0 l/m 0 min 0 min 0 W/m 3,2 km/h (1 Bft) 91,49 %
17.08.2023 03:36 17,1 C 16,1 C 12,8 C 98 % 1019,0 hPa 0,0 l/m 0 min 0 min 0 W/m 6,4 km/h (2 Bft) 93,62 %
17.08.2023 03:38 17,1 C 16,1 C 12,8 C 98 % 1019,1 hPa 0,0 l/m 0 min 0 min 0 W/m 6,4 km/h (2 Bft) 91,49 %
17.08.2023 03:40 17,1 C 16,1 C 12,8 C 98 % 1019,1 hPa 0,0 l/m 0 min 0 min 0 W/m 6,4 km/h (2 Bft) 93,62 %
17.08.2023 03:42 17,1 C 16,1 C 12,8 C 98 % 1019,1 hPa 0,0 l/m 0 min 0 min 0 W/m 12,9 km/h (3 Bft) 91,30 %
17.08.2023 03:44 17,1 C 16,1 C 12,8 C 98 % 1019,1 hPa 0,0 l/m 0 min 0 min 0 W/m 9,7 km/h (2 Bft) 93,62 %
17.08.2023 03:46 17,1 C 16,1 C 12,8 C 98 % 1019,1 hPa 0,0 l/m 0 min 0 min 0 W/m 9,7 km/h (2 Bft) 93,62 %
17.08.2023 03:48 17,1 C 16,1 C 12,8 C 98 % 1019,1 hPa 0,0 l/m 0 min 0 min 0 W/m 9,7 km/h (2 Bft) 93,62 %
17.08.2023 03:50 17,1 C 16,1 C 12,8 C 98 % 1019,1 hPa 0,0 l/m 0 min 0 min 0 W/m 19,3 km/h (3 Bft) 97,87 %
17.08.2023 03:52 17,0 C 16,1 C 12,8 C 98 % 1019,1 hPa 0,0 l/m 0 min 0 min 0 W/m 19,3 km/h (3 Bft) 97,87 %
17.08.2023 03:54 17,0 C 16,1 C 12,8 C 98 % 1019,1 hPa 0,0 l/m 0 min 0 min 0 W/m 6,4 km/h (2 Bft) 97,83 %
17.08.2023 03:56 17,0 C 16,1 C 12,8 C 98 % 1019,1 hPa 0,0 l/m 0 min 0 min 0 W/m 16,1 km/h (3 Bft) 97,87 %
17.08.2023 03:58 17,0 C 16,1 C 12,8 C 98 % 1019,1 hPa 0,0 l/m 0 min 0 min 0 W/m 12,9 km/h (3 Bft) 97,87 %
17.08.2023 04:00 17,0 C 16,1 C 12,8 C 98 % 1019,1 hPa 0,0 l/m 0 min 0 min 0 W/m 6,4 km/h (2 Bft) 97,87 %
17.08.2023 04:02 17,0 C 16,1 C 12,8 C 98 % 1019,0 hPa 0,0 l/m 0 min 0 min 0 W/m 3,2 km/h (1 Bft) 97,87 %
17.08.2023 04:04 16,9 C 16,1 C 12,8 C 98 % 1019,0 hPa 0,0 l/m 0 min 0 min 0 W/m 19,3 km/h (3 Bft) 100,00 %
17.08.2023 04:06 16,9 C 16,1 C 12,8 C 98 % 1019,0 hPa 0,0 l/m 0 min 0 min 0 W/m 9,7 km/h (2 Bft) 100,00 %
17.08.2023 04:08 16,9 C 16,1 C 12,8 C 98 % 1019,0 hPa 0,0 l/m 0 min 0 min 0 W/m 3,2 km/h (1 Bft) 97,14 %
17.08.2023 04:10 16,9 C 16,1 C 12,8 C 98 % 1019,0 hPa 0,0 l/m 0 min 0 min 0 W/m 12,9 km/h (3 Bft) 100,00 %
17.08.2023 04:12 16,9 C 16,1 C 12,8 C 98 % 1019,0 hPa 0,0 l/m 0 min 0 min 0 W/m 6,4 km/h (2 Bft) 97,87 %
17.08.2023 04:14 16,9 C 16,1 C 12,8 C 99 % 1019,0 hPa 0,0 l/m 0 min 0 min 0 W/m 3,2 km/h (1 Bft) 100,00 %
17.08.2023 04:16 16,9 C 16,1 C 12,8 C 99 % 1019,0 hPa 0,0 l/m 0 min 0 min 0 W/m 3,2 km/h (1 Bft) 100,00 %
17.08.2023 04:18 17,0 C 16,1 C 12,8 C 99 % 1019,0 hPa 0,0 l/m 0 min 0 min 0 W/m 3,2 km/h (1 Bft) 100,00 %
17.08.2023 04:20 17,0 C 16,1 C 12,8 C 99 % 1019,0 hPa 0,0 l/m 0 min 0 min 0 W/m 3,2 km/h (1 Bft) 100,00 %
17.08.2023 04:22 16,9 C 16,1 C 12,8 C 99 % 1019,0 hPa 0,0 l/m 0 min 0 min 0 W/m 6,4 km/h (2 Bft) 100,00 %
17.08.2023 04:24 16,9 C 16,1 C 12,8 C 99 % 1018,9 hPa 0,0 l/m 0 min 0 min 0 W/m 3,2 km/h (1 Bft) 100,00 %
17.08.2023 04:26 16,9 C 16,1 C 12,8 C 99 % 1018,9 hPa 0,0 l/m 0 min 0 min 0 W/m 0,0 km/h (0 Bft) 100,00 %
17.08.2023 04:28 16,9 C 16,1 C 12,8 C 99 % 1019,0 hPa 0,0 l/m 0 min 0 min 0 W/m 3,2 km/h (1 Bft) 100,00 %
17.08.2023 04:30 16,9 C 16,1 C 12,8 C 99 % 1018,9 hPa 0,0 l/m 0 min 0 min 0 W/m 6,4 km/h (2 Bft) 100,00 %
17.08.2023 04:32 17,0 C 16,1 C 12,8 C 99 % 1019,0 hPa 0,0 l/m 0 min 0 min 0 W/m 0,0 km/h (0 Bft) 100,00 %
17.08.2023 04:34 16,9 C 16,1 C 12,8 C 99 % 1019,0 hPa 0,0 l/m 0 min 0 min 0 W/m 6,4 km/h (2 Bft) 100,00 %
17.08.2023 04:36 16,9 C 16,1 C 12,8 C 99 % 1018,9 hPa 0,0 l/m 0 min 0 min 0 W/m 6,4 km/h (2 Bft) 100,00 %
17.08.2023 04:38 16,9 C 16,1 C 12,8 C 99 % 1019,0 hPa 0,0 l/m 0 min 0 min 0 W/m 3,2 km/h (1 Bft) 100,00 %
17.08.2023 04:40 16,9 C 16,1 C 12,8 C 99 % 1018,9 hPa 0,0 l/m 0 min 0 min 0 W/m 12,9 km/h (3 Bft) 100,00 %
17.08.2023 04:42 16,9 C 16,1 C 12,8 C 99 % 1018,9 hPa 0,0 l/m 0 min 0 min 0 W/m 6,4 km/h (2 Bft) 100,00 %
17.08.2023 04:44 16,9 C 16,1 C 12,8 C 99 % 1018,9 hPa 0,0 l/m 0 min 0 min 0 W/m 9,7 km/h (2 Bft) 100,00 %
17.08.2023 04:46 16,9 C 16,1 C 12,8 C 99 % 1018,9 hPa 0,0 l/m 0 min 0 min 0 W/m 3,2 km/h (1 Bft) 97,83 %
17.08.2023 04:48 16,9 C 16,1 C 12,8 C 99 % 1018,8 hPa 0,0 l/m 0 min 0 min 0 W/m 3,2 km/h (1 Bft) 100,00 %
17.08.2023 04:50 16,9 C 16,1 C 12,8 C 99 % 1018,8 hPa 0,0 l/m 0 min 0 min 0 W/m 3,2 km/h (1 Bft) 100,00 %
17.08.2023 04:52 16,9 C 16,1 C 12,8 C 99 % 1018,9 hPa 0,0 l/m 0 min 0 min 0 W/m 0,0 km/h (0 Bft) 100,00 %
17.08.2023 04:54 16,9 C 16,1 C 12,8 C 99 % 1018,8 hPa 0,0 l/m 0 min 0 min 0 W/m 3,2 km/h (1 Bft) 100,00 %
17.08.2023 04:56 16,9 C 16,1 C 12,8 C 99 % 1018,8 hPa 0,0 l/m 0 min 0 min 0 W/m 3,2 km/h (1 Bft) 100,00 %
17.08.2023 04:58 16,9 C 16,1 C 12,8 C 99 % 1018,8 hPa 0,0 l/m 0 min 0 min 0 W/m 0,0 km/h (0 Bft) 100,00 %
17.08.2023 05:00 16,9 C 16,1 C 12,8 C 99 % 1018,8 hPa 0,0 l/m 0 min 0 min 0 W/m 0,0 km/h (0 Bft) 100,00 %
17.08.2023 05:02 17,0 C 16,1 C 12,8 C 99 % 1018,8 hPa 0,0 l/m 0 min 0 min 0 W/m 3,2 km/h (1 Bft) 97,87 %
17.08.2023 05:04 17,0 C 16,1 C 12,8 C 99 % 1018,8 hPa 0,0 l/m 0 min 0 min 0 W/m 3,2 km/h (1 Bft) 100,00 %
17.08.2023 05:06 17,0 C 16,1 C 12,8 C 99 % 1018,7 hPa 0,0 l/m 0 min 0 min 0 W/m 3,2 km/h (1 Bft) 100,00 %
17.08.2023 05:08 17,0 C 16,1 C 12,8 C 99 % 1018,7 hPa 0,0 l/m 0 min 0 min 0 W/m 3,2 km/h (1 Bft) 100,00 %
17.08.2023 05:10 17,1 C 16,1 C 12,8 C 99 % 1018,7 hPa 0,0 l/m 0 min 0 min 0 W/m 3,2 km/h (1 Bft) 100,00 %
17.08.2023 05:12 17,1 C 16,1 C 12,8 C 99 % 1018,8 hPa 0,0 l/m 0 min 0 min 0 W/m 6,4 km/h (2 Bft) 97,87 %
17.08.2023 05:14 17,0 C 16,1 C 12,8 C 99 % 1018,8 hPa 0,0 l/m 0 min 0 min 0 W/m 9,7 km/h (2 Bft) 100,00 %
17.08.2023 05:16 17,0 C 16,1 C 12,8 C 99 % 1018,8 hPa 0,0 l/m 0 min 0 min 0 W/m 3,2 km/h (1 Bft) 100,00 %
17.08.2023 05:18 17,0 C 16,1 C 12,8 C 99 % 1018,8 hPa 0,0 l/m 0 min 0 min 0 W/m 6,4 km/h (2 Bft) 100,00 %
17.08.2023 05:20 16,9 C 16,1 C 12,8 C 99 % 1018,7 hPa 0,0 l/m 0 min 0 min 0 W/m 6,4 km/h (2 Bft) 97,87 %
17.08.2023 05:22 16,9 C 15,6 C 12,8 C 99 % 1018,7 hPa 0,0 l/m 0 min 0 min 0 W/m 6,4 km/h (2 Bft) 97,87 %
17.08.2023 05:24 16,9 C 15,6 C 12,8 C 99 % 1018,8 hPa 0,0 l/m 0 min 0 min 0 W/m 6,4 km/h (2 Bft) 95,74 %
17.08.2023 05:26 16,9 C 15,6 C 12,2 C 99 % 1018,7 hPa 0,0 l/m 0 min 0 min 0 W/m 3,2 km/h (1 Bft) 97,87 %
17.08.2023 05:28 16,8 C 15,6 C 12,2 C 99 % 1018,7 hPa 0,0 l/m 0 min 0 min 0 W/m 6,4 km/h (2 Bft) 95,74 %
17.08.2023 05:30 16,8 C 15,6 C 12,2 C 99 % 1018,8 hPa 0,0 l/m 0 min 0 min 0 W/m 6,4 km/h (2 Bft) 97,83 %
17.08.2023 05:32 16,8 C 15,6 C 12,2 C 98 % 1018,8 hPa 0,0 l/m 0 min 0 min 0 W/m 6,4 km/h (2 Bft) 95,74 %
17.08.2023 05:34 16,8 C 15,6 C 12,2 C 98 % 1018,8 hPa 0,0 l/m 0 min 0 min 0 W/m 6,4 km/h (2 Bft) 97,87 %
17.08.2023 05:36 16,8 C 15,6 C 12,2 C 98 % 1018,8 hPa 0,0 l/m 0 min 0 min 0 W/m 3,2 km/h (1 Bft) 95,74 %
17.08.2023 05:38 16,7 C 15,6 C 12,2 C 98 % 1018,8 hPa 0,0 l/m 0 min 0 min 0 W/m 6,4 km/h (2 Bft) 97,87 %
17.08.2023 05:40 16,7 C 15,6 C 12,2 C 98 % 1018,9 hPa 0,0 l/m 0 min 0 min 0 W/m 6,4 km/h (2 Bft) 95,74 %
17.08.2023 05:42 16,7 C 15,6 C 12,2 C 98 % 1018,9 hPa 0,0 l/m 0 min 0 min 0 W/m 6,4 km/h (2 Bft) 93,48 %
17.08.2023 05:44 16,7 C 15,6 C 12,2 C 98 % 1018,9 hPa 0,0 l/m 0 min 0 min 0 W/m 3,2 km/h (1 Bft) 93,62 %
17.08.2023 05:46 16,6 C 15,6 C 12,2 C 98 % 1018,9 hPa 0,0 l/m 0 min 0 min 0 W/m 3,2 km/h (1 Bft) 97,87 %
17.08.2023 05:48 16,6 C 15,6 C 12,2 C 98 % 1018,9 hPa 0,0 l/m 0 min 0 min 0 W/m 6,4 km/h (2 Bft) 95,74 %
17.08.2023 05:50 16,6 C 15,6 C 12,2 C 98 % 1018,9 hPa 0,0 l/m 0 min 0 min 0 W/m 6,4 km/h (2 Bft) 100,00 %
17.08.2023 05:52 16,6 C 15,6 C 12,2 C 98 % 1018,8 hPa 0,0 l/m 0 min 0 min 0 W/m 3,2 km/h (1 Bft) 97,87 %
17.08.2023 05:54 16,6 C 15,6 C 12,2 C 98 % 1018,8 hPa 0,0 l/m 0 min 0 min 0 W/m 12,9 km/h (3 Bft) 93,62 %
17.08.2023 05:56 16,6 C 15,6 C 12,2 C 98 % 1018,8 hPa 0,0 l/m 0 min 0 min 0 W/m 25,7 km/h (4 Bft) 93,48 %
17.08.2023 05:58 16,6 C 15,6 C 12,2 C 98 % 1018,8 hPa 0,0 l/m 0 min 0 min 0 W/m 12,9 km/h (3 Bft) 95,74 %
17.08.2023 06:00 16,5 C 15,6 C 12,2 C 98 % 1018,8 hPa 0,0 l/m 0 min 0 min 0 W/m 6,4 km/h (2 Bft) 95,74 %
17.08.2023 06:02 16,5 C 15,6 C 12,2 C 98 % 1018,8 hPa 0,0 l/m 0 min 0 min 0 W/m 6,4 km/h (2 Bft) 95,74 %
17.08.2023 06:04 16,4 C 15,6 C 12,2 C 98 % 1018,8 hPa 0,0 l/m 0 min 0 min 0 W/m 9,7 km/h (2 Bft) 95,74 %
17.08.2023 06:08 16,4 C 15,6 C 12,2 C 98 % 1018,8 hPa 0,0 l/m 0 min 0 min 0 W/m 6,4 km/h (2 Bft) 95,88 %
17.08.2023 06:10 16,4 C 15,6 C 12,2 C 98 % 1018,8 hPa 0,0 l/m 0 min 0 min 0 W/m 12,9 km/h (3 Bft) 95,74 %
17.08.2023 06:12 16,4 C 15,6 C 12,2 C 98 % 1018,9 hPa 0,0 l/m 0 min 0 min 0 W/m 16,1 km/h (3 Bft) 97,14 %
17.08.2023 06:14 16,4 C 15,6 C 12,2 C 98 % 1018,9 hPa 0,0 l/m 0 min 0 min 0 W/m 6,4 km/h (2 Bft) 93,62 %
17.08.2023 06:16 16,4 C 15,6 C 12,2 C 98 % 1018,9 hPa 0,0 l/m 0 min 0 min 0 W/m 9,7 km/h (2 Bft) 95,74 %
17.08.2023 06:18 16,4 C 15,6 C 12,2 C 98 % 1019,0 hPa 0,0 l/m 0 min 0 min 0 W/m 6,4 km/h (2 Bft) 95,65 %
17.08.2023 06:20 16,4 C 15,6 C 12,2 C 98 % 1018,9 hPa 0,0 l/m 0 min 0 min 0 W/m 9,7 km/h (2 Bft) 93,62 %
17.08.2023 06:22 16,4 C 15,6 C 12,2 C 98 % 1019,0 hPa 0,0 l/m 0 min 0 min 0 W/m 6,4 km/h (2 Bft) 95,74 %
17.08.2023 06:24 16,4 C 15,6 C 12,2 C 98 % 1019,0 hPa 0,0 l/m 0 min 0 min 0 W/m 6,4 km/h (2 Bft) 95,74 %
17.08.2023 06:26 16,4 C 15,6 C 12,2 C 98 % 1019,0 hPa 0,0 l/m 0 min 0 min 0 W/m 6,4 km/h (2 Bft) 95,74 %
17.08.2023 06:28 16,4 C 15,6 C 12,2 C 98 % 1019,0 hPa 0,0 l/m 0 min 0 min 0 W/m 3,2 km/h (1 Bft) 97,87 %
17.08.2023 06:30 16,4 C 15,6 C 12,2 C 98 % 1019,0 hPa 0,0 l/m 0 min 0 min 0 W/m 9,7 km/h (2 Bft) 100,00 %
17.08.2023 06:32 16,4 C 15,6 C 12,2 C 98 % 1019,0 hPa 0,0 l/m 0 min 0 min 0 W/m 6,4 km/h (2 Bft) 95,74 %
17.08.2023 06:34 16,4 C 15,6 C 12,2 C 98 % 1019,0 hPa 0,0 l/m 0 min 0 min 0 W/m 6,4 km/h (2 Bft) 97,87 %
17.08.2023 06:36 16,4 C 15,6 C 12,2 C 98 % 1019,0 hPa 0,0 l/m 0 min 0 min 0 W/m 6,4 km/h (2 Bft) 97,87 %
17.08.2023 06:38 16,4 C 15,6 C 12,2 C 98 % 1019,1 hPa 0,0 l/m 0 min 0 min 0 W/m 3,2 km/h (1 Bft) 97,87 %
17.08.2023 06:40 16,4 C 15,6 C 12,2 C 98 % 1019,1 hPa 0,0 l/m 0 min 0 min 0 W/m 3,2 km/h (1 Bft) 97,87 %
17.08.2023 06:42 16,5 C 15,6 C 12,2 C 98 % 1019,2 hPa 0,0 l/m 0 min 0 min 2 W/m 3,2 km/h (1 Bft) 97,87 %
17.08.2023 06:44 16,5 C 15,6 C 12,2 C 98 % 1019,2 hPa 0,0 l/m 0 min 0 min 5 W/m 3,2 km/h (1 Bft) 100,00 %
17.08.2023 06:46 16,5 C 15,6 C 12,2 C 98 % 1019,1 hPa 0,0 l/m 0 min 0 min 5 W/m 3,2 km/h (1 Bft) 97,87 %
17.08.2023 06:48 16,5 C 15,6 C 12,2 C 98 % 1019,1 hPa 0,0 l/m 0 min 0 min 7 W/m 3,2 km/h (1 Bft) 100,00 %
17.08.2023 06:50 16,4 C 15,6 C 12,2 C 98 % 1019,1 hPa 0,0 l/m 0 min 0 min 9 W/m 3,2 km/h (1 Bft) 100,00 %
17.08.2023 06:52 16,4 C 15,6 C 12,2 C 98 % 1019,1 hPa 0,0 l/m 0 min 0 min 11 W/m 6,4 km/h (2 Bft) 100,00 %
17.08.2023 06:54 16,5 C 15,6 C 12,2 C 98 % 1019,1 hPa 0,0 l/m 0 min 0 min 13 W/m 6,4 km/h (2 Bft) 100,00 %
17.08.2023 06:56 16,5 C 15,6 C 12,2 C 98 % 1019,1 hPa 0,0 l/m 0 min 0 min 17 W/m 9,7 km/h (2 Bft) 100,00 %
17.08.2023 06:58 16,5 C 15,6 C 12,2 C 98 % 1019,1 hPa 0,0 l/m 0 min 0 min 21 W/m 9,7 km/h (2 Bft) 100,00 %
17.08.2023 07:00 16,5 C 15,6 C 12,2 C 98 % 1019,1 hPa 0,0 l/m 0 min 0 min 23 W/m 3,2 km/h (1 Bft) 100,00 %
17.08.2023 07:02 16,5 C 15,6 C 12,2 C 98 % 1019,2 hPa 0,0 l/m 0 min 0 min 22 W/m 9,7 km/h (2 Bft) 100,00 %
17.08.2023 07:04 16,5 C 15,6 C 12,2 C 98 % 1019,1 hPa 0,0 l/m 0 min 0 min 24 W/m 6,4 km/h (2 Bft) 97,87 %
17.08.2023 07:06 16,5 C 15,6 C 12,2 C 98 % 1019,1 hPa 0,0 l/m 0 min 0 min 25 W/m 9,7 km/h (2 Bft) 100,00 %
17.08.2023 07:08 16,6 C 15,6 C 12,2 C 98 % 1019,2 hPa 0,0 l/m 0 min 0 min 26 W/m 9,7 km/h (2 Bft) 100,00 %
17.08.2023 07:10 16,5 C 15,6 C 12,2 C 98 % 1019,2 hPa 0,0 l/m 0 min 0 min 26 W/m 3,2 km/h (1 Bft) 100,00 %
17.08.2023 07:12 16,5 C 15,6 C 12,2 C 98 % 1019,2 hPa 0,0 l/m 0 min 0 min 26 W/m 6,4 km/h (2 Bft) 93,62 %
17.08.2023 07:14 16,6 C 15,6 C 12,2 C 98 % 1019,2 hPa 0,0 l/m 0 min 0 min 25 W/m 9,7 km/h (2 Bft) 97,87 %
17.08.2023 07:16 16,6 C 15,6 C 12,2 C 98 % 1019,2 hPa 0,0 l/m 0 min 0 min 25 W/m 12,9 km/h (3 Bft) 97,83 %
17.08.2023 07:18 16,6 C 15,6 C 12,2 C 98 % 1019,2 hPa 0,0 l/m 0 min 0 min 23 W/m 6,4 km/h (2 Bft) 95,74 %
17.08.2023 07:20 16,6 C 15,6 C 12,2 C 98 % 1019,2 hPa 0,0 l/m 0 min 0 min 21 W/m 3,2 km/h (1 Bft) 97,87 %
17.08.2023 07:22 16,6 C 15,6 C 12,2 C 98 % 1019,1 hPa 0,0 l/m 0 min 0 min 22 W/m 3,2 km/h (1 Bft) 97,87 %
17.08.2023 07:24 16,6 C 16,1 C 12,2 C 98 % 1019,1 hPa 0,0 l/m 0 min 0 min 23 W/m 6,4 km/h (2 Bft) 97,87 %
17.08.2023 07:26 16,6 C 16,1 C 12,2 C 98 % 1019,2 hPa 0,0 l/m 0 min 0 min 21 W/m 6,4 km/h (2 Bft) 95,74 %
17.08.2023 07:28 16,6 C 15,6 C 12,2 C 98 % 1019,2 hPa 0,0 l/m 0 min 0 min 23 W/m 6,4 km/h (2 Bft) 97,83 %
17.08.2023 07:30 16,6 C 16,1 C 12,2 C 98 % 1019,2 hPa 0,0 l/m 0 min 0 min 24 W/m 3,2 km/h (1 Bft) 97,87 %
17.08.2023 07:32 16,6 C 16,1 C 12,2 C 98 % 1019,2 hPa 0,0 l/m 0 min 0 min 26 W/m 3,2 km/h (1 Bft) 97,87 %
17.08.2023 07:34 16,6 C 16,1 C 12,2 C 98 % 1019,2 hPa 0,0 l/m 0 min 0 min 27 W/m 6,4 km/h (2 Bft) 97,87 %
17.08.2023 07:36 16,6 C 16,1 C 12,2 C 98 % 1019,2 hPa 0,0 l/m 0 min 0 min 24 W/m 9,7 km/h (2 Bft) 95,74 %
17.08.2023 07:38 16,6 C 15,6 C 12,2 C 98 % 1019,2 hPa 0,0 l/m 0 min 0 min 26 W/m 9,7 km/h (2 Bft) 95,74 %
17.08.2023 07:40 16,6 C 16,1 C 12,2 C 98 % 1019,2 hPa 0,0 l/m 0 min 0 min 32 W/m 3,2 km/h (1 Bft) 97,87 %
17.08.2023 07:42 16,6 C 16,1 C 12,2 C 98 % 1019,2 hPa 0,0 l/m 0 min 0 min 37 W/m 3,2 km/h (1 Bft) 97,83 %
17.08.2023 07:44 16,6 C 16,1 C 12,2 C 98 % 1019,2 hPa 0,0 l/m 0 min 0 min 35 W/m 3,2 km/h (1 Bft) 100,00 %
17.08.2023 07:46 16,6 C 16,1 C 12,2 C 98 % 1019,2 hPa 0,0 l/m 0 min 0 min 36 W/m 6,4 km/h (2 Bft) 100,00 %
17.08.2023 07:48 16,6 C 16,1 C 12,2 C 98 % 1019,2 hPa 0,0 l/m 0 min 0 min 39 W/m 9,7 km/h (2 Bft) 100,00 %
17.08.2023 07:50 16,6 C 16,1 C 12,2 C 98 % 1019,2 hPa 0,0 l/m 0 min 0 min 42 W/m 6,4 km/h (2 Bft) 100,00 %
17.08.2023 07:52 16,6 C 16,1 C 12,2 C 98 % 1019,2 hPa 0,0 l/m 0 min 0 min 43 W/m 6,4 km/h (2 Bft) 100,00 %
17.08.2023 07:54 16,6 C 16,1 C 12,2 C 98 % 1019,2 hPa 0,0 l/m 0 min 0 min 44 W/m 6,4 km/h (2 Bft) 100,00 %
17.08.2023 07:56 16,6 C 16,1 C 12,8 C 98 % 1019,2 hPa 0,0 l/m 0 min 0 min 42 W/m 6,4 km/h (2 Bft) 100,00 %
17.08.2023 07:58 16,7 C 16,1 C 12,8 C 98 % 1019,2 hPa 0,0 l/m 0 min 0 min 39 W/m 3,2 km/h (1 Bft) 100,00 %
17.08.2023 08:00 16,7 C 16,1 C 12,8 C 98 % 1019,2 hPa 0,0 l/m 0 min 0 min 40 W/m 3,2 km/h (1 Bft) 97,87 %
17.08.2023 08:02 16,7 C 16,1 C 12,8 C 98 % 1019,2 hPa 0,0 l/m 0 min 0 min 42 W/m 3,2 km/h (1 Bft) 100,00 %
17.08.2023 08:04 16,7 C 16,1 C 12,8 C 98 % 1019,2 hPa 0,0 l/m 0 min 0 min 42 W/m 6,4 km/h (2 Bft) 100,00 %
17.08.2023 08:06 16,8 C 16,1 C 12,8 C 98 % 1019,3 hPa 0,0 l/m 0 min 0 min 43 W/m 3,2 km/h (1 Bft) 100,00 %
17.08.2023 08:08 16,8 C 16,1 C 12,8 C 98 % 1019,2 hPa 0,0 l/m 0 min 0 min 44 W/m 3,2 km/h (1 Bft) 100,00 %
17.08.2023 08:10 16,8 C 16,1 C 12,8 C 98 % 1019,3 hPa 0,0 l/m 0 min 0 min 40 W/m 3,2 km/h (1 Bft) 97,87 %
17.08.2023 08:12 16,8 C 16,1 C 12,8 C 98 % 1019,3 hPa 0,0 l/m 0 min 0 min 43 W/m 3,2 km/h (1 Bft) 100,00 %
17.08.2023 08:14 16,8 C 16,1 C 12,8 C 98 % 1019,3 hPa 0,0 l/m 0 min 0 min 49 W/m 3,2 km/h (1 Bft) 97,87 %
17.08.2023 08:16 16,8 C 16,1 C 12,8 C 98 % 1019,3 hPa 0,0 l/m 0 min 0 min 49 W/m 3,2 km/h (1 Bft) 97,87 %
17.08.2023 08:18 16,9 C 16,1 C 12,8 C 98 % 1019,3 hPa 0,0 l/m 0 min 0 min 49 W/m 12,9 km/h (3 Bft) 97,87 %
17.08.2023 08:20 16,9 C 16,1 C 12,8 C 98 % 1019,3 hPa 0,0 l/m 0 min 0 min 50 W/m 9,7 km/h (2 Bft) 97,83 %
17.08.2023 08:22 16,8 C 16,1 C 12,8 C 98 % 1019,3 hPa 0,0 l/m 0 min 0 min 50 W/m 6,4 km/h (2 Bft) 95,74 %
17.08.2023 08:24 16,8 C 16,1 C 12,8 C 98 % 1019,4 hPa 0,0 l/m 0 min 0 min 51 W/m 9,7 km/h (2 Bft) 97,87 %
17.08.2023 08:26 16,8 C 16,1 C 12,8 C 98 % 1019,4 hPa 0,0 l/m 0 min 0 min 50 W/m 6,4 km/h (2 Bft) 95,74 %
17.08.2023 08:28 16,8 C 16,1 C 12,8 C 98 % 1019,4 hPa 0,0 l/m 0 min 0 min 53 W/m 6,4 km/h (2 Bft) 97,87 %
17.08.2023 08:30 16,8 C 16,1 C 12,8 C 98 % 1019,4 hPa 0,0 l/m 0 min 0 min 52 W/m 6,4 km/h (2 Bft) 97,87 %
17.08.2023 08:32 16,8 C 16,1 C 12,8 C 98 % 1019,4 hPa 0,0 l/m 0 min 0 min 53 W/m 12,9 km/h (3 Bft) 97,83 %
17.08.2023 08:34 16,8 C 16,1 C 12,8 C 98 % 1019,3 hPa 0,0 l/m 0 min 0 min 58 W/m 6,4 km/h (2 Bft) 97,87 %
17.08.2023 08:36 16,8 C 16,1 C 12,8 C 98 % 1019,3 hPa 0,0 l/m 0 min 0 min 60 W/m 6,4 km/h (2 Bft) 97,87 %
17.08.2023 08:38 16,8 C 16,1 C 12,8 C 98 % 1019,3 hPa 0,0 l/m 0 min 0 min 62 W/m 3,2 km/h (1 Bft) 97,87 %
17.08.2023 08:40 16,9 C 16,1 C 12,8 C 98 % 1019,3 hPa 0,0 l/m 0 min 0 min 60 W/m 3,2 km/h (1 Bft) 97,87 %
17.08.2023 08:42 16,9 C 16,1 C 12,8 C 98 % 1019,4 hPa 0,0 l/m 0 min 0 min 64 W/m 6,4 km/h (2 Bft) 97,87 %
17.08.2023 08:44 16,9 C 16,1 C 12,8 C 98 % 1019,4 hPa 0,0 l/m 0 min 0 min 70 W/m 6,4 km/h (2 Bft) 93,62 %
17.08.2023 08:46 16,9 C 16,7 C 12,8 C 98 % 1019,4 hPa 0,0 l/m 0 min 0 min 70 W/m 3,2 km/h (1 Bft) 97,83 %
17.08.2023 08:48 16,9 C 16,7 C 12,8 C 98 % 1019,3 hPa 0,0 l/m 0 min 0 min 69 W/m 6,4 km/h (2 Bft) 97,87 %
17.08.2023 08:50 16,9 C 16,7 C 12,8 C 98 % 1019,4 hPa 0,0 l/m 0 min 0 min 67 W/m 6,4 km/h (2 Bft) 95,74 %
17.08.2023 08:52 17,0 C 16,7 C 12,8 C 98 % 1019,4 hPa 0,0 l/m 0 min 0 min 65 W/m 6,4 km/h (2 Bft) 97,87 %
17.08.2023 08:54 17,0 C 16,7 C 12,8 C 98 % 1019,3 hPa 0,0 l/m 0 min 0 min 65 W/m 16,1 km/h (3 Bft) 93,62 %
17.08.2023 08:56 17,0 C 16,7 C 12,8 C 98 % 1019,3 hPa 0,0 l/m 0 min 0 min 67 W/m 6,4 km/h (2 Bft) 95,74 %
17.08.2023 08:58 17,0 C 16,7 C 12,8 C 98 % 1019,3 hPa 0,0 l/m 0 min 0 min 64 W/m 6,4 km/h (2 Bft) 95,65 %
17.08.2023 09:00 17,0 C 16,7 C 12,8 C 98 % 1019,4 hPa 0,0 l/m 0 min 0 min 64 W/m 3,2 km/h (1 Bft) 97,87 %
17.08.2023 09:02 17,0 C 16,7 C 12,8 C 98 % 1019,3 hPa 0,0 l/m 0 min 0 min 70 W/m 9,7 km/h (2 Bft) 95,74 %
17.08.2023 09:04 17,0 C 16,7 C 12,8 C 97 % 1019,3 hPa 0,0 l/m 0 min 0 min 69 W/m 6,4 km/h (2 Bft) 93,62 %
17.08.2023 09:06 17,0 C 16,7 C 12,8 C 97 % 1019,3 hPa 0,0 l/m 0 min 0 min 65 W/m 3,2 km/h (1 Bft) 98,31 %
17.08.2023 09:08 17,1 C 16,7 C 12,8 C 97 % 1019,4 hPa 0,0 l/m 0 min 0 min 64 W/m 3,2 km/h (1 Bft) 94,29 %
17.08.2023 09:10 17,1 C 16,7 C 13,3 C 97 % 1019,3 hPa 0,0 l/m 0 min 0 min 65 W/m 0,0 km/h (0 Bft) 95,65 %
17.08.2023 09:12 17,1 C 16,7 C 13,3 C 97 % 1019,4 hPa 0,0 l/m 0 min 0 min 76 W/m 6,4 km/h (2 Bft) 95,74 %
17.08.2023 09:14 17,1 C 16,7 C 13,3 C 98 % 1019,5 hPa 0,0 l/m 0 min 0 min 79 W/m 3,2 km/h (1 Bft) 95,74 %
17.08.2023 09:16 17,1 C 16,7 C 13,3 C 98 % 1019,5 hPa 0,0 l/m 0 min 0 min 73 W/m 3,2 km/h (1 Bft) 95,74 %
17.08.2023 09:18 17,2 C 16,7 C 13,3 C 98 % 1019,5 hPa 0,0 l/m 0 min 0 min 73 W/m 0,0 km/h (0 Bft) 95,74 %
17.08.2023 09:20 17,2 C 16,7 C 13,3 C 98 % 1019,5 hPa 0,0 l/m 0 min 0 min 76 W/m 3,2 km/h (1 Bft) 95,74 %
17.08.2023 09:22 17,2 C 16,7 C 13,3 C 98 % 1019,4 hPa 0,0 l/m 0 min 0 min 74 W/m 3,2 km/h (1 Bft) 93,62 %
17.08.2023 09:24 17,2 C 16,7 C 13,3 C 98 % 1019,4 hPa 0,0 l/m 0 min 0 min 79 W/m 6,4 km/h (2 Bft) 95,65 %
17.08.2023 09:26 17,2 C 16,7 C 13,3 C 98 % 1019,4 hPa 0,0 l/m 0 min 0 min 89 W/m 6,4 km/h (2 Bft) 95,74 %
17.08.2023 09:28 17,2 C 16,7 C 13,3 C 97 % 1019,5 hPa 0,0 l/m 0 min 0 min 91 W/m 6,4 km/h (2 Bft) 95,74 %
17.08.2023 09:30 17,2 C 16,7 C 13,3 C 97 % 1019,5 hPa 0,0 l/m 0 min 0 min 98 W/m 6,4 km/h (2 Bft) 95,74 %
17.08.2023 09:32 17,2 C 16,7 C 13,3 C 97 % 1019,6 hPa 0,0 l/m 0 min 0 min 102 W/m 6,4 km/h (2 Bft) 93,62 %
17.08.2023 09:34 17,2 C 17,2 C 13,3 C 97 % 1019,5 hPa 0,0 l/m 0 min 0 min 100 W/m 6,4 km/h (2 Bft) 97,87 %
17.08.2023 09:36 17,2 C 17,2 C 13,3 C 97 % 1019,5 hPa 0,0 l/m 0 min 0 min 108 W/m 6,4 km/h (2 Bft) 97,87 %
17.08.2023 09:38 17,2 C 17,2 C 13,3 C 97 % 1019,6 hPa 0,0 l/m 0 min 0 min 106 W/m 3,2 km/h (1 Bft) 97,83 %
17.08.2023 09:40 17,3 C 17,2 C 13,3 C 97 % 1019,6 hPa 0,0 l/m 0 min 0 min 100 W/m 6,4 km/h (2 Bft) 100,00 %
17.08.2023 09:42 17,3 C 17,2 C 13,3 C 97 % 1019,6 hPa 0,0 l/m 0 min 0 min 98 W/m 6,4 km/h (2 Bft) 97,87 %
17.08.2023 09:44 17,3 C 17,2 C 13,3 C 97 % 1019,6 hPa 0,0 l/m 0 min 0 min 102 W/m 16,1 km/h (3 Bft) 100,00 %
17.08.2023 09:46 17,3 C 17,2 C 13,3 C 97 % 1019,6 hPa 0,0 l/m 0 min 0 min 107 W/m 9,7 km/h (2 Bft) 93,62 %
17.08.2023 09:48 17,3 C 17,2 C 13,3 C 97 % 1019,6 hPa 0,0 l/m 0 min 0 min 116 W/m 9,7 km/h (2 Bft) 100,00 %
17.08.2023 09:50 17,3 C 17,2 C 13,3 C 97 % 1019,6 hPa 0,0 l/m 0 min 0 min 124 W/m 3,2 km/h (1 Bft) 100,00 %
17.08.2023 09:52 17,3 C 17,2 C 13,3 C 97 % 1019,6 hPa 0,0 l/m 0 min 0 min 115 W/m 12,9 km/h (3 Bft) 100,00 %
17.08.2023 09:54 17,4 C 17,2 C 13,3 C 97 % 1019,6 hPa 0,0 l/m 0 min 0 min 111 W/m 3,2 km/h (1 Bft) 100,00 %
17.08.2023 09:56 17,4 C 17,2 C 13,3 C 97 % 1019,6 hPa 0,0 l/m 0 min 0 min 107 W/m 3,2 km/h (1 Bft) 95,74 %
17.08.2023 09:58 17,4 C 17,8 C 13,3 C 97 % 1019,7 hPa 0,0 l/m 0 min 0 min 112 W/m 3,2 km/h (1 Bft) 100,00 %
17.08.2023 10:00 17,4 C 17,8 C 13,3 C 97 % 1019,7 hPa 0,0 l/m 0 min 0 min 122 W/m 9,7 km/h (2 Bft) 100,00 %
17.08.2023 10:02 17,5 C 17,8 C 13,9 C 97 % 1019,7 hPa 0,0 l/m 0 min 0 min 121 W/m 3,2 km/h (1 Bft) 100,00 %
17.08.2023 10:04 17,5 C 17,8 C 13,9 C 97 % 1019,7 hPa 0,0 l/m 0 min 0 min 118 W/m 6,4 km/h (2 Bft) 100,00 %
17.08.2023 10:06 17,5 C 17,2 C 13,3 C 97 % 1019,7 hPa 0,0 l/m 0 min 0 min 110 W/m 6,4 km/h (2 Bft) 98,31 %
17.08.2023 10:08 17,5 C 17,2 C 13,3 C 97 % 1019,7 hPa 0,0 l/m 0 min 0 min 118 W/m 6,4 km/h (2 Bft) 100,00 %
17.08.2023 10:10 17,5 C 17,8 C 13,9 C 97 % 1019,7 hPa 0,0 l/m 0 min 0 min 122 W/m 3,2 km/h (1 Bft) 100,00 %
17.08.2023 10:12 17,5 C 17,8 C 13,9 C 97 % 1019,7 hPa 0,0 l/m 0 min 0 min 128 W/m 6,4 km/h (2 Bft) 100,00 %
17.08.2023 10:14 17,5 C 17,2 C 13,9 C 96 % 1019,8 hPa 0,0 l/m 0 min 0 min 125 W/m 12,9 km/h (3 Bft) 100,00 %
17.08.2023 10:16 17,5 C 17,8 C 13,9 C 96 % 1019,8 hPa 0,0 l/m 0 min 0 min 123 W/m 3,2 km/h (1 Bft) 100,00 %
17.08.2023 10:18 17,6 C 17,8 C 13,9 C 96 % 1019,8 hPa 0,0 l/m 0 min 0 min 130 W/m 6,4 km/h (2 Bft) 100,00 %
17.08.2023 10:20 17,6 C 17,8 C 13,9 C 96 % 1019,8 hPa 0,0 l/m 0 min 0 min 135 W/m 6,4 km/h (2 Bft) 100,00 %
17.08.2023 10:22 17,6 C 17,8 C 13,9 C 96 % 1019,7 hPa 0,0 l/m 0 min 0 min 141 W/m 3,2 km/h (1 Bft) 100,00 %
17.08.2023 10:24 17,6 C 17,8 C 13,9 C 96 % 1019,8 hPa 0,0 l/m 0 min 0 min 142 W/m 9,7 km/h (2 Bft) 100,00 %
17.08.2023 10:26 17,7 C 17,8 C 13,9 C 96 % 1019,8 hPa 0,0 l/m 0 min 0 min 144 W/m 3,2 km/h (1 Bft) 100,00 %
17.08.2023 10:28 17,7 C 17,8 C 13,9 C 96 % 1019,8 hPa 0,0 l/m 0 min 0 min 149 W/m 6,4 km/h (2 Bft) 100,00 %
17.08.2023 10:30 17,7 C 17,8 C 13,9 C 96 % 1019,7 hPa 0,0 l/m 0 min 0 min 149 W/m 16,1 km/h (3 Bft) 100,00 %
17.08.2023 10:32 17,7 C 17,8 C 13,9 C 96 % 1019,7 hPa 0,0 l/m 0 min 0 min 144 W/m 16,1 km/h (3 Bft) 100,00 %
17.08.2023 10:34 17,7 C 17,8 C 13,9 C 96 % 1019,7 hPa 0,0 l/m 0 min 0 min 137 W/m 3,2 km/h (1 Bft) 100,00 %
17.08.2023 10:36 17,7 C 17,8 C 13,9 C 96 % 1019,7 hPa 0,0 l/m 0 min 0 min 127 W/m 9,7 km/h (2 Bft) 100,00 %
17.08.2023 10:38 17,8 C 17,8 C 13,9 C 96 % 1019,7 hPa 0,0 l/m 0 min 0 min 124 W/m 9,7 km/h (2 Bft) 97,87 %
17.08.2023 10:40 17,8 C 17,8 C 14,4 C 96 % 1019,7 hPa 0,0 l/m 0 min 0 min 119 W/m 3,2 km/h (1 Bft) 100,00 %
17.08.2023 10:42 17,8 C 17,8 C 13,9 C 96 % 1019,7 hPa 0,0 l/m 0 min 0 min 114 W/m 16,1 km/h (3 Bft) 100,00 %
17.08.2023 10:44 17,8 C 17,8 C 13,9 C 96 % 1019,7 hPa 0,0 l/m 0 min 0 min 113 W/m 6,4 km/h (2 Bft) 100,00 %
17.08.2023 10:46 17,8 C 17,8 C 14,4 C 96 % 1019,7 hPa 0,0 l/m 0 min 0 min 116 W/m 6,4 km/h (2 Bft) 97,87 %
17.08.2023 10:48 17,8 C 17,8 C 14,4 C 96 % 1019,7 hPa 0,0 l/m 0 min 0 min 117 W/m 6,4 km/h (2 Bft) 100,00 %
17.08.2023 10:50 17,8 C 17,8 C 14,4 C 96 % 1019,7 hPa 0,0 l/m 0 min 0 min 121 W/m 3,2 km/h (1 Bft) 97,87 %
17.08.2023 10:52 17,8 C 17,8 C 14,4 C 95 % 1019,7 hPa 0,0 l/m 0 min 0 min 123 W/m 12,9 km/h (3 Bft) 100,00 %
17.08.2023 10:54 17,8 C 17,8 C 14,4 C 95 % 1019,6 hPa 0,0 l/m 0 min 0 min 122 W/m 9,7 km/h (2 Bft) 100,00 %
17.08.2023 10:56 17,8 C 17,8 C 14,4 C 95 % 1019,7 hPa 0,0 l/m 0 min 0 min 114 W/m 6,4 km/h (2 Bft) 97,83 %
17.08.2023 10:58 17,9 C 17,8 C 14,4 C 95 % 1019,7 hPa 0,0 l/m 0 min 0 min 108 W/m 3,2 km/h (1 Bft) 100,00 %
17.08.2023 11:00 17,9 C 17,8 C 14,4 C 95 % 1019,7 hPa 0,0 l/m 0 min 0 min 108 W/m 6,4 km/h (2 Bft) 100,00 %
17.08.2023 11:02 17,9 C 17,8 C 14,4 C 95 % 1019,6 hPa 0,0 l/m 0 min 0 min 116 W/m 6,4 km/h (2 Bft) 95,74 %
17.08.2023 11:04 17,9 C 17,8 C 14,4 C 95 % 1019,7 hPa 0,0 l/m 0 min 0 min 121 W/m 9,7 km/h (2 Bft) 95,45 %
17.08.2023 11:06 17,9 C 17,8 C 14,4 C 95 % 1019,7 hPa 0,0 l/m 0 min 0 min 119 W/m 6,4 km/h (2 Bft) 94,92 %
17.08.2023 11:08 17,9 C 17,8 C 14,4 C 95 % 1019,7 hPa 0,0 l/m 0 min 0 min 120 W/m 6,4 km/h (2 Bft) 97,14 %
17.08.2023 11:10 17,9 C 17,8 C 14,4 C 95 % 1019,7 hPa 0,0 l/m 0 min 0 min 125 W/m 12,9 km/h (3 Bft) 95,74 %
17.08.2023 11:12 17,9 C 17,8 C 14,4 C 95 % 1019,7 hPa 0,0 l/m 0 min 0 min 133 W/m 12,9 km/h (3 Bft) 95,74 %
17.08.2023 11:14 17,9 C 17,8 C 14,4 C 95 % 1019,7 hPa 0,0 l/m 0 min 0 min 144 W/m 6,4 km/h (2 Bft) 95,65 %
17.08.2023 11:16 17,9 C 17,8 C 14,4 C 95 % 1019,7 hPa 0,0 l/m 0 min 0 min 147 W/m 3,2 km/h (1 Bft) 95,74 %
17.08.2023 11:18 17,9 C 17,8 C 14,4 C 95 % 1019,7 hPa 0,0 l/m 0 min 0 min 147 W/m 6,4 km/h (2 Bft) 93,62 %
17.08.2023 11:20 17,9 C 18,3 C 14,4 C 95 % 1019,6 hPa 0,0 l/m 0 min 0 min 158 W/m 6,4 km/h (2 Bft) 95,74 %
17.08.2023 11:22 18,0 C 18,3 C 14,4 C 95 % 1019,6 hPa 0,0 l/m 0 min 0 min 172 W/m 6,4 km/h (2 Bft) 95,74 %
17.08.2023 11:24 18,1 C 18,3 C 14,4 C 95 % 1019,6 hPa 0,0 l/m 0 min 0 min 165 W/m 6,4 km/h (2 Bft) 95,74 %
17.08.2023 11:26 18,0 C 18,3 C 14,4 C 95 % 1019,6 hPa 0,0 l/m 0 min 0 min 158 W/m 12,9 km/h (3 Bft) 95,65 %
17.08.2023 11:28 18,1 C 18,3 C 14,4 C 95 % 1019,6 hPa 0,0 l/m 0 min 0 min 158 W/m 3,2 km/h (1 Bft) 95,74 %
17.08.2023 11:30 18,1 C 18,3 C 14,4 C 95 % 1019,6 hPa 0,0 l/m 0 min 0 min 154 W/m 6,4 km/h (2 Bft) 93,62 %
17.08.2023 11:32 18,1 C 18,3 C 15,0 C 95 % 1019,5 hPa 0,0 l/m 0 min 0 min 147 W/m 6,4 km/h (2 Bft) 93,62 %
17.08.2023 11:34 18,2 C 18,3 C 14,4 C 95 % 1019,5 hPa 0,0 l/m 0 min 0 min 151 W/m 12,9 km/h (3 Bft) 95,74 %
17.08.2023 11:36 18,2 C 18,3 C 14,4 C 95 % 1019,5 hPa 0,0 l/m 0 min 0 min 146 W/m 6,4 km/h (2 Bft) 93,62 %
17.08.2023 11:38 18,2 C 18,3 C 14,4 C 95 % 1019,5 hPa 0,0 l/m 0 min 0 min 150 W/m 3,2 km/h (1 Bft) 95,74 %
17.08.2023 11:40 18,2 C 18,3 C 15,0 C 95 % 1019,5 hPa 0,0 l/m 0 min 0 min 164 W/m 6,4 km/h (2 Bft) 95,65 %
17.08.2023 11:42 18,3 C 18,3 C 15,0 C 95 % 1019,5 hPa 0,0 l/m 0 min 0 min 171 W/m 6,4 km/h (2 Bft) 93,62 %
17.08.2023 11:44 18,3 C 18,3 C 15,0 C 95 % 1019,5 hPa 0,0 l/m 0 min 0 min 160 W/m 6,4 km/h (2 Bft) 95,74 %
17.08.2023 11:46 18,3 C 18,3 C 15,0 C 95 % 1019,5 hPa 0,0 l/m 0 min 0 min 165 W/m 9,7 km/h (2 Bft) 95,74 %
17.08.2023 11:48 18,3 C 18,3 C 15,0 C 94 % 1019,5 hPa 0,0 l/m 0 min 0 min 171 W/m 9,7 km/h (2 Bft) 95,74 %
17.08.2023 11:50 18,3 C 18,3 C 15,0 C 94 % 1019,5 hPa 0,0 l/m 0 min 0 min 174 W/m 6,4 km/h (2 Bft) 95,74 %
17.08.2023 11:52 18,3 C 18,9 C 15,0 C 94 % 1019,5 hPa 0,0 l/m 0 min 0 min 163 W/m 6,4 km/h (2 Bft) 97,83 %
17.08.2023 11:54 18,3 C 18,9 C 15,0 C 94 % 1019,5 hPa 0,0 l/m 0 min 0 min 158 W/m 6,4 km/h (2 Bft) 97,87 %
17.08.2023 11:56 18,3 C 18,9 C 15,0 C 94 % 1019,5 hPa 0,0 l/m 0 min 0 min 159 W/m 3,2 km/h (1 Bft) 100,00 %
17.08.2023 11:58 18,4 C 18,9 C 15,0 C 94 % 1019,5 hPa 0,0 l/m 0 min 0 min 165 W/m 3,2 km/h (1 Bft) 93,62 %
17.08.2023 12:00 18,4 C 18,9 C 15,0 C 94 % 1019,4 hPa 0,0 l/m 0 min 0 min 175 W/m 9,7 km/h (2 Bft) 97,87 %
17.08.2023 12:02 18,4 C 18,9 C 15,0 C 94 % 1019,4 hPa 0,0 l/m 0 min 0 min 183 W/m 6,4 km/h (2 Bft) 97,87 %
17.08.2023 12:04 18,4 C 18,9 C 15,0 C 94 % 1019,4 hPa 0,0 l/m 0 min 0 min 184 W/m 9,7 km/h (2 Bft) 97,92 %
17.08.2023 12:08 18,5 C 18,9 C 15,0 C 94 % 1019,4 hPa 0,0 l/m 0 min 0 min 187 W/m 12,9 km/h (3 Bft) 97,78 %
17.08.2023 12:10 18,6 C 18,9 C 15,0 C 94 % 1019,3 hPa 0,0 l/m 0 min 0 min 171 W/m 6,4 km/h (2 Bft) 97,87 %
17.08.2023 12:12 18,6 C 18,9 C 15,0 C 94 % 1019,3 hPa 0,0 l/m 0 min 0 min 172 W/m 6,4 km/h (2 Bft) 97,87 %
17.08.2023 12:14 18,6 C 18,9 C 15,0 C 94 % 1019,3 hPa 0,0 l/m 0 min 0 min 175 W/m 6,4 km/h (2 Bft) 95,65 %
17.08.2023 12:16 18,6 C 18,9 C 15,0 C 94 % 1019,3 hPa 0,0 l/m 0 min 0 min 176 W/m 6,4 km/h (2 Bft) 97,87 %
17.08.2023 12:18 18,7 C 18,9 C 15,0 C 94 % 1019,2 hPa 0,0 l/m 0 min 0 min 189 W/m 9,7 km/h (2 Bft) 91,49 %
17.08.2023 12:20 18,7 C 19,4 C 15,6 C 94 % 1019,1 hPa 0,0 l/m 0 min 0 min 195 W/m 3,2 km/h (1 Bft) 100,00 %
17.08.2023 12:22 18,7 C 19,4 C 15,6 C 94 % 1019,2 hPa 0,0 l/m 0 min 0 min 202 W/m 9,7 km/h (2 Bft) 100,00 %
17.08.2023 12:24 18,8 C 19,4 C 15,6 C 94 % 1019,1 hPa 0,0 l/m 0 min 0 min 197 W/m 9,7 km/h (2 Bft) 100,00 %
17.08.2023 12:26 18,8 C 19,4 C 15,6 C 94 % 1019,1 hPa 0,0 l/m 0 min 0 min 197 W/m 12,9 km/h (3 Bft) 100,00 %
17.08.2023 12:28 18,8 C 19,4 C 15,6 C 94 % 1019,2 hPa 0,0 l/m 0 min 0 min 187 W/m 6,4 km/h (2 Bft) 100,00 %
17.08.2023 12:30 18,9 C 19,4 C 15,6 C 94 % 1019,2 hPa 0,0 l/m 0 min 0 min 163 W/m 6,4 km/h (2 Bft) 100,00 %
17.08.2023 12:32 18,9 C 19,4 C 15,6 C 94 % 1019,3 hPa 0,0 l/m 0 min 0 min 139 W/m 6,4 km/h (2 Bft) 100,00 %
17.08.2023 12:34 18,9 C 18,9 C 15,6 C 93 % 1019,3 hPa 0,0 l/m 0 min 0 min 124 W/m 6,4 km/h (2 Bft) 100,00 %
17.08.2023 12:36 18,9 C 18,9 C 15,6 C 93 % 1019,4 hPa 0,0 l/m 0 min 0 min 120 W/m 3,2 km/h (1 Bft) 100,00 %
17.08.2023 12:38 18,9 C 18,9 C 15,6 C 93 % 1019,4 hPa 0,0 l/m 0 min 0 min 116 W/m 3,2 km/h (1 Bft) 100,00 %
17.08.2023 12:40 18,9 C 18,9 C 15,6 C 93 % 1019,4 hPa 0,0 l/m 0 min 0 min 118 W/m 9,7 km/h (2 Bft) 97,83 %
17.08.2023 12:42 18,9 C 18,9 C 15,0 C 93 % 1019,4 hPa 0,0 l/m 0 min 0 min 119 W/m 12,9 km/h (3 Bft) 97,87 %
17.08.2023 12:44 18,9 C 18,9 C 15,0 C 93 % 1019,4 hPa 0,0 l/m 0 min 0 min 131 W/m 12,9 km/h (3 Bft) 100,00 %
17.08.2023 12:46 18,9 C 18,9 C 15,0 C 93 % 1019,4 hPa 0,0 l/m 0 min 0 min 140 W/m 6,4 km/h (2 Bft) 97,87 %
17.08.2023 12:48 18,9 C 18,9 C 15,0 C 93 % 1019,4 hPa 0,0 l/m 0 min 0 min 153 W/m 6,4 km/h (2 Bft) 100,00 %
17.08.2023 12:50 18,9 C 18,9 C 15,0 C 93 % 1019,4 hPa 0,0 l/m 0 min 0 min 157 W/m 6,4 km/h (2 Bft) 97,87 %
17.08.2023 12:52 18,9 C 18,9 C 15,0 C 93 % 1019,4 hPa 0,0 l/m 0 min 0 min 159 W/m 9,7 km/h (2 Bft) 100,00 %
17.08.2023 12:54 18,9 C 18,9 C 15,6 C 93 % 1019,4 hPa 0,0 l/m 0 min 0 min 171 W/m 6,4 km/h (2 Bft) 97,83 %
17.08.2023 12:56 18,9 C 18,9 C 15,6 C 93 % 1019,4 hPa 0,0 l/m 0 min 0 min 167 W/m 6,4 km/h (2 Bft) 100,00 %
17.08.2023 12:58 18,9 C 18,9 C 15,6 C 93 % 1019,4 hPa 0,0 l/m 0 min 0 min 171 W/m 9,7 km/h (2 Bft) 100,00 %
17.08.2023 13:00 18,9 C 18,9 C 15,6 C 93 % 1019,4 hPa 0,0 l/m 0 min 0 min 172 W/m 6,4 km/h (2 Bft) 100,00 %
17.08.2023 13:02 18,9 C 19,4 C 15,6 C 93 % 1019,5 hPa 0,0 l/m 0 min 0 min 174 W/m 6,4 km/h (2 Bft) 97,87 %
17.08.2023 13:04 19,0 C 19,4 C 15,6 C 93 % 1019,4 hPa 0,0 l/m 0 min 0 min 179 W/m 3,2 km/h (1 Bft) 97,67 %
17.08.2023 13:06 19,0 C 18,9 C 15,6 C 93 % 1019,4 hPa 0,0 l/m 0 min 0 min 163 W/m 9,7 km/h (2 Bft) 98,31 %
17.08.2023 13:08 19,0 C 18,9 C 15,6 C 93 % 1019,4 hPa 0,0 l/m 0 min 0 min 158 W/m 16,1 km/h (3 Bft) 97,14 %
17.08.2023 13:10 19,0 C 18,9 C 15,6 C 93 % 1019,4 hPa 0,0 l/m 0 min 0 min 158 W/m 6,4 km/h (2 Bft) 97,83 %
17.08.2023 13:12 19,0 C 18,9 C 15,6 C 93 % 1019,4 hPa 0,0 l/m 0 min 0 min 152 W/m 3,2 km/h (1 Bft) 97,87 %
17.08.2023 13:14 19,0 C 18,9 C 15,6 C 93 % 1019,4 hPa 0,0 l/m 0 min 0 min 149 W/m 6,4 km/h (2 Bft) 97,87 %
17.08.2023 13:16 19,0 C 18,9 C 15,6 C 93 % 1019,4 hPa 0,0 l/m 0 min 0 min 143 W/m 12,9 km/h (3 Bft) 97,87 %
17.08.2023 13:18 19,0 C 18,9 C 15,6 C 92 % 1019,5 hPa 0,0 l/m 0 min 0 min 140 W/m 3,2 km/h (1 Bft) 97,87 %
17.08.2023 13:20 19,0 C 18,9 C 15,6 C 92 % 1019,5 hPa 0,0 l/m 0 min 0 min 143 W/m 6,4 km/h (2 Bft) 97,87 %
17.08.2023 13:22 19,0 C 18,9 C 15,6 C 92 % 1019,4 hPa 0,0 l/m 0 min 0 min 148 W/m 6,4 km/h (2 Bft) 97,87 %
17.08.2023 13:24 19,1 C 18,9 C 15,6 C 92 % 1019,5 hPa 0,0 l/m 0 min 0 min 151 W/m 3,2 km/h (1 Bft) 97,83 %
17.08.2023 13:26 19,1 C 18,9 C 15,6 C 92 % 1019,4 hPa 0,0 l/m 0 min 0 min 150 W/m 6,4 km/h (2 Bft) 97,87 %
17.08.2023 13:28 19,1 C 18,9 C 15,6 C 92 % 1019,5 hPa 0,0 l/m 0 min 0 min 149 W/m 6,4 km/h (2 Bft) 97,87 %
17.08.2023 13:30 19,1 C 18,9 C 15,6 C 92 % 1019,5 hPa 0,0 l/m 0 min 0 min 147 W/m 6,4 km/h (2 Bft) 97,87 %
17.08.2023 13:32 19,1 C 18,9 C 15,6 C 92 % 1019,5 hPa 0,0 l/m 0 min 0 min 150 W/m 12,9 km/h (3 Bft) 97,87 %
17.08.2023 13:34 19,1 C 18,9 C 15,6 C 92 % 1019,5 hPa 0,0 l/m 0 min 0 min 165 W/m 6,4 km/h (2 Bft) 97,87 %
17.08.2023 13:36 19,1 C 18,9 C 15,6 C 92 % 1019,5 hPa 0,0 l/m 0 min 0 min 177 W/m 6,4 km/h (2 Bft) 97,83 %
17.08.2023 13:38 19,1 C 19,4 C 15,6 C 92 % 1019,5 hPa 0,0 l/m 0 min 0 min 186 W/m 12,9 km/h (3 Bft) 95,74 %
17.08.2023 13:40 19,2 C 19,4 C 15,6 C 92 % 1019,5 hPa 0,0 l/m 0 min 0 min 200 W/m 6,4 km/h (2 Bft) 97,87 %
17.08.2023 13:42 19,2 C 19,4 C 15,6 C 92 % 1019,5 hPa 0,0 l/m 0 min 0 min 232 W/m 3,2 km/h (1 Bft) 100,00 %
17.08.2023 13:44 19,3 C 20,0 C 16,1 C 92 % 1019,5 hPa 0,0 l/m 0 min 0 min 257 W/m 6,4 km/h (2 Bft) 100,00 %
17.08.2023 13:46 19,3 C 20,0 C 16,1 C 92 % 1019,5 hPa 0,0 l/m 0 min 0 min 258 W/m 12,9 km/h (3 Bft) 97,87 %
17.08.2023 13:48 19,3 C 20,0 C 16,1 C 92 % 1019,5 hPa 0,0 l/m 0 min 0 min 257 W/m 3,2 km/h (1 Bft) 100,00 %
17.08.2023 13:50 19,4 C 20,0 C 16,1 C 92 % 1019,5 hPa 0,0 l/m 0 min 0 min 245 W/m 6,4 km/h (2 Bft) 97,87 %
17.08.2023 13:52 19,4 C 20,0 C 16,1 C 92 % 1019,5 hPa 0,0 l/m 0 min 0 min 232 W/m 6,4 km/h (2 Bft) 100,00 %
17.08.2023 13:54 19,5 C 20,0 C 16,1 C 92 % 1019,4 hPa 0,0 l/m 0 min 0 min 204 W/m 3,2 km/h (1 Bft) 100,00 %
17.08.2023 13:56 19,6 C 20,6 C 16,1 C 92 % 1019,5 hPa 0,0 l/m 0 min 0 min 195 W/m 3,2 km/h (1 Bft) 100,00 %
17.08.2023 13:58 19,6 C 20,0 C 16,1 C 92 % 1019,4 hPa 0,0 l/m 0 min 0 min 199 W/m 3,2 km/h (1 Bft) 100,00 %
17.08.2023 14:00 19,7 C 20,0 C 16,1 C 92 % 1019,4 hPa 0,0 l/m 0 min 0 min 210 W/m 3,2 km/h (1 Bft) 95,74 %
17.08.2023 14:02 19,7 C 20,6 C 16,1 C 92 % 1019,4 hPa 0,0 l/m 0 min 0 min 219 W/m 3,2 km/h (1 Bft) 95,65 %
17.08.2023 14:04 19,7 C 20,0 C 16,1 C 92 % 1019,4 hPa 0,0 l/m 0 min 0 min 223 W/m 6,4 km/h (2 Bft) 100,00 %
17.08.2023 14:06 19,8 C 20,6 C 16,1 C 91 % 1019,5 hPa 0,0 l/m 0 min 0 min 225 W/m 6,4 km/h (2 Bft) 93,22 %
17.08.2023 14:08 19,8 C 20,6 C 16,1 C 91 % 1019,5 hPa 0,0 l/m 0 min 0 min 216 W/m 6,4 km/h (2 Bft) 97,14 %
17.08.2023 14:10 19,8 C 20,6 C 16,1 C 91 % 1019,5 hPa 0,0 l/m 0 min 0 min 203 W/m 3,2 km/h (1 Bft) 95,74 %
17.08.2023 14:12 19,8 C 20,0 C 16,1 C 91 % 1019,4 hPa 0,0 l/m 0 min 0 min 192 W/m 3,2 km/h (1 Bft) 93,62 %
17.08.2023 14:14 19,8 C 20,0 C 16,1 C 91 % 1019,4 hPa 0,0 l/m 0 min 0 min 184 W/m 6,4 km/h (2 Bft) 95,65 %
17.08.2023 14:16 19,8 C 20,0 C 16,1 C 91 % 1019,4 hPa 0,0 l/m 0 min 0 min 181 W/m 3,2 km/h (1 Bft) 95,74 %
17.08.2023 14:18 19,9 C 20,0 C 16,1 C 91 % 1019,4 hPa 0,0 l/m 0 min 0 min 187 W/m 6,4 km/h (2 Bft) 93,62 %
17.08.2023 14:20 19,9 C 20,6 C 16,1 C 91 % 1019,4 hPa 0,0 l/m 0 min 0 min 199 W/m 6,4 km/h (2 Bft) 95,74 %
17.08.2023 14:22 19,9 C 20,0 C 16,1 C 90 % 1019,4 hPa 0,0 l/m 0 min 0 min 203 W/m 12,9 km/h (3 Bft) 93,62 %
17.08.2023 14:24 19,9 C 20,0 C 16,1 C 90 % 1019,4 hPa 0,0 l/m 0 min 0 min 197 W/m 3,2 km/h (1 Bft) 93,62 %
17.08.2023 14:26 19,9 C 20,0 C 16,1 C 91 % 1019,4 hPa 0,0 l/m 0 min 0 min 191 W/m 6,4 km/h (2 Bft) 95,65 %
17.08.2023 14:28 20,0 C 20,6 C 16,1 C 91 % 1019,4 hPa 0,0 l/m 0 min 0 min 190 W/m 3,2 km/h (1 Bft) 95,74 %
17.08.2023 14:30 20,0 C 20,6 C 16,1 C 91 % 1019,4 hPa 0,0 l/m 0 min 0 min 186 W/m 3,2 km/h (1 Bft) 95,74 %
17.08.2023 14:32 20,1 C 20,6 C 16,1 C 91 % 1019,4 hPa 0,0 l/m 0 min 0 min 176 W/m 6,4 km/h (2 Bft) 93,62 %
17.08.2023 14:34 20,1 C 20,0 C 16,1 C 90 % 1019,4 hPa 0,0 l/m 0 min 0 min 161 W/m 6,4 km/h (2 Bft) 95,74 %
17.08.2023 14:36 20,1 C 20,0 C 16,1 C 90 % 1019,4 hPa 0,0 l/m 0 min 0 min 161 W/m 9,7 km/h (2 Bft) 93,62 %
17.08.2023 14:38 20,1 C 20,0 C 16,1 C 90 % 1019,4 hPa 0,0 l/m 0 min 0 min 174 W/m 6,4 km/h (2 Bft) 95,65 %
17.08.2023 14:40 20,1 C 20,0 C 16,1 C 90 % 1019,4 hPa 0,0 l/m 0 min 0 min 200 W/m 0,0 km/h (0 Bft) 95,74 %
17.08.2023 14:42 20,1 C 20,6 C 16,7 C 90 % 1019,4 hPa 0,0 l/m 0 min 0 min 223 W/m 0,0 km/h (0 Bft) 95,74 %
17.08.2023 14:44 20,1 C 20,6 C 16,7 C 90 % 1019,4 hPa 0,0 l/m 0 min 0 min 231 W/m 0,0 km/h (0 Bft) 95,74 %
17.08.2023 14:46 20,1 C 20,6 C 16,7 C 90 % 1019,4 hPa 0,0 l/m 0 min 0 min 222 W/m 0,0 km/h (0 Bft) 95,74 %
17.08.2023 14:48 20,2 C 20,6 C 16,7 C 90 % 1019,4 hPa 0,0 l/m 0 min 0 min 224 W/m 0,0 km/h (0 Bft) 93,62 %
17.08.2023 14:50 20,2 C 20,6 C 16,7 C 90 % 1019,4 hPa 0,0 l/m 0 min 0 min 228 W/m 0,0 km/h (0 Bft) 95,74 %
17.08.2023 14:52 20,2 C 20,6 C 16,7 C 90 % 1019,4 hPa 0,0 l/m 0 min 0 min 216 W/m 0,0 km/h (0 Bft) 95,65 %
17.08.2023 14:54 20,2 C 20,6 C 16,7 C 90 % 1019,4 hPa 0,0 l/m 0 min 0 min 215 W/m 0,0 km/h (0 Bft) 95,74 %
17.08.2023 14:56 20,2 C 20,6 C 16,7 C 90 % 1019,4 hPa 0,0 l/m 0 min 0 min 222 W/m 0,0 km/h (0 Bft) 95,74 %
17.08.2023 14:58 20,3 C 20,6 C 16,7 C 90 % 1019,3 hPa 0,0 l/m 0 min 0 min 234 W/m 0,0 km/h (0 Bft) 100,00 %
17.08.2023 15:00 20,3 C 21,1 C 16,7 C 90 % 1019,3 hPa 0,0 l/m 0 min 0 min 232 W/m 0,0 km/h (0 Bft) 95,74 %
17.08.2023 15:02 20,3 C 21,1 C 16,7 C 90 % 1019,4 hPa 0,0 l/m 0 min 0 min 211 W/m 0,0 km/h (0 Bft) 100,00 %
17.08.2023 15:04 20,4 C 21,1 C 16,7 C 90 % 1019,3 hPa 0,0 l/m 0 min 0 min 194 W/m 0,0 km/h (0 Bft) 100,00 %
17.08.2023 15:06 20,4 C 21,1 C 16,7 C 90 % 1019,4 hPa 0,0 l/m 0 min 0 min 181 W/m 0,0 km/h (0 Bft) 97,96 %
17.08.2023 15:08 20,4 C 21,1 C 16,7 C 90 % 1019,3 hPa 0,0 l/m 0 min 0 min 170 W/m 9,7 km/h (2 Bft) 89,36 %
17.08.2023 15:10 20,4 C 21,1 C 16,7 C 90 % 1019,3 hPa 0,0 l/m 0 min 0 min 171 W/m 9,7 km/h (2 Bft) 97,87 %
17.08.2023 15:12 20,5 C 20,6 C 16,7 C 90 % 1019,3 hPa 0,0 l/m 0 min 0 min 179 W/m 6,4 km/h (2 Bft) 95,74 %
17.08.2023 15:14 20,5 C 20,6 C 16,7 C 90 % 1019,4 hPa 0,0 l/m 0 min 0 min 176 W/m 3,2 km/h (1 Bft) 95,74 %
17.08.2023 15:16 20,5 C 20,6 C 16,7 C 90 % 1019,3 hPa 0,0 l/m 0 min 0 min 165 W/m 3,2 km/h (1 Bft) 100,00 %
17.08.2023 15:18 20,6 C 20,6 C 16,7 C 90 % 1019,4 hPa 0,0 l/m 0 min 0 min 158 W/m 3,2 km/h (1 Bft) 97,87 %
17.08.2023 15:20 20,6 C 20,6 C 16,7 C 90 % 1019,4 hPa 0,0 l/m 0 min 0 min 161 W/m 3,2 km/h (1 Bft) 97,87 %
17.08.2023 15:22 20,7 C 21,1 C 16,7 C 90 % 1019,4 hPa 0,0 l/m 0 min 0 min 160 W/m 3,2 km/h (1 Bft) 97,87 %
17.08.2023 15:24 20,7 C 21,1 C 17,2 C 89 % 1019,3 hPa 0,0 l/m 0 min 0 min 154 W/m 6,4 km/h (2 Bft) 97,87 %
17.08.2023 15:26 20,7 C 21,1 C 17,2 C 89 % 1019,4 hPa 0,0 l/m 0 min 0 min 151 W/m 6,4 km/h (2 Bft) 97,87 %
17.08.2023 15:28 20,7 C 21,1 C 16,7 C 89 % 1019,4 hPa 0,0 l/m 0 min 0 min 139 W/m 3,2 km/h (1 Bft) 97,83 %
17.08.2023 15:30 20,8 C 21,7 C 16,7 C 89 % 1019,4 hPa 0,0 l/m 0 min 0 min 134 W/m 3,2 km/h (1 Bft) 97,87 %
17.08.2023 15:32 20,9 C 21,7 C 16,7 C 89 % 1019,4 hPa 0,0 l/m 0 min 0 min 133 W/m 3,2 km/h (1 Bft) 93,62 %
17.08.2023 15:34 20,9 C 21,7 C 16,7 C 89 % 1019,4 hPa 0,0 l/m 0 min 0 min 132 W/m 6,4 km/h (2 Bft) 97,87 %
17.08.2023 15:36 21,0 C 21,1 C 16,7 C 89 % 1019,5 hPa 0,0 l/m 0 min 0 min 128 W/m 3,2 km/h (1 Bft) 97,87 %
17.08.2023 15:38 21,0 C 21,1 C 16,7 C 88 % 1019,4 hPa 0,0 l/m 0 min 0 min 126 W/m 3,2 km/h (1 Bft) 95,74 %
17.08.2023 15:40 21,1 C 21,1 C 16,7 C 88 % 1019,4 hPa 0,0 l/m 0 min 0 min 118 W/m 6,4 km/h (2 Bft) 95,74 %
17.08.2023 15:42 21,1 C 21,1 C 16,7 C 88 % 1019,4 hPa 0,0 l/m 0 min 0 min 108 W/m 3,2 km/h (1 Bft) 95,65 %
17.08.2023 15:44 21,1 C 21,1 C 16,7 C 87 % 1019,3 hPa 0,0 l/m 0 min 0 min 96 W/m 3,2 km/h (1 Bft) 100,00 %
17.08.2023 15:46 21,1 C 21,1 C 16,7 C 87 % 1019,3 hPa 0,0 l/m 0 min 0 min 91 W/m 3,2 km/h (1 Bft) 95,74 %
17.08.2023 15:48 21,1 C 21,1 C 16,7 C 87 % 1019,3 hPa 0,0 l/m 0 min 0 min 90 W/m 3,2 km/h (1 Bft) 100,00 %
17.08.2023 15:50 21,1 C 21,1 C 16,1 C 87 % 1019,2 hPa 0,0 l/m 0 min 0 min 90 W/m 3,2 km/h (1 Bft) 100,00 %
17.08.2023 15:52 21,2 C 21,1 C 16,1 C 88 % 1019,2 hPa 0,0 l/m 0 min 0 min 88 W/m 9,7 km/h (2 Bft) 100,00 %
17.08.2023 15:54 21,2 C 21,1 C 16,7 C 87 % 1019,2 hPa 0,0 l/m 0 min 0 min 89 W/m 6,4 km/h (2 Bft) 95,65 %
17.08.2023 15:56 21,1 C 21,1 C 16,1 C 87 % 1019,2 hPa 0,0 l/m 0 min 0 min 92 W/m 3,2 km/h (1 Bft) 97,87 %
17.08.2023 15:58 21,1 C 21,1 C 16,1 C 87 % 1019,2 hPa 0,0 l/m 0 min 0 min 97 W/m 3,2 km/h (1 Bft) 100,00 %
17.08.2023 16:00 21,1 C 21,1 C 16,7 C 87 % 1019,2 hPa 0,0 l/m 0 min 0 min 103 W/m 3,2 km/h (1 Bft) 100,00 %
17.08.2023 16:02 21,1 C 21,1 C 16,7 C 87 % 1019,2 hPa 0,0 l/m 0 min 0 min 110 W/m 3,2 km/h (1 Bft) 100,00 %
17.08.2023 16:04 21,1 C 21,1 C 16,7 C 87 % 1019,2 hPa 0,0 l/m 0 min 0 min 119 W/m 6,4 km/h (2 Bft) 100,00 %
17.08.2023 16:06 21,1 C 21,1 C 16,7 C 87 % 1019,2 hPa 0,0 l/m 0 min 0 min 138 W/m 3,2 km/h (1 Bft) 100,00 %
17.08.2023 16:08 21,1 C 21,1 C 16,7 C 87 % 1019,1 hPa 0,0 l/m 0 min 0 min 158 W/m 6,4 km/h (2 Bft) 100,00 %
17.08.2023 16:10 21,1 C 21,1 C 16,7 C 87 % 1019,2 hPa 0,0 l/m 0 min 0 min 164 W/m 0,0 km/h (0 Bft) 100,00 %
17.08.2023 16:12 21,1 C 21,1 C 16,7 C 87 % 1019,1 hPa 0,0 l/m 0 min 0 min 163 W/m 0,0 km/h (0 Bft) 100,00 %
17.08.2023 16:14 21,1 C 21,7 C 16,7 C 88 % 1019,1 hPa 0,0 l/m 0 min 0 min 162 W/m 0,0 km/h (0 Bft) 100,00 %
17.08.2023 16:16 21,1 C 21,7 C 16,7 C 88 % 1019,0 hPa 0,0 l/m 0 min 0 min 169 W/m 0,0 km/h (0 Bft) 100,00 %
17.08.2023 16:18 21,2 C 21,1 C 16,7 C 88 % 1019,0 hPa 0,0 l/m 0 min 0 min 179 W/m 0,0 km/h (0 Bft) 100,00 %
17.08.2023 16:20 21,2 C 21,1 C 16,7 C 88 % 1019,0 hPa 0,0 l/m 0 min 0 min 175 W/m 0,0 km/h (0 Bft) 100,00 %
17.08.2023 16:22 21,2 C 21,7 C 16,7 C 88 % 1019,0 hPa 0,0 l/m 0 min 0 min 160 W/m 0,0 km/h (0 Bft) 100,00 %
17.08.2023 16:24 21,2 C 21,7 C 16,7 C 88 % 1018,9 hPa 0,0 l/m 0 min 0 min 150 W/m 0,0 km/h (0 Bft) 100,00 %
17.08.2023 16:26 21,2 C 21,7 C 16,7 C 88 % 1019,0 hPa 0,0 l/m 0 min 0 min 148 W/m 0,0 km/h (0 Bft) 100,00 %
17.08.2023 16:28 21,2 C 21,1 C 16,7 C 88 % 1018,9 hPa 0,0 l/m 0 min 0 min 153 W/m 6,4 km/h (2 Bft) 100,00 %
17.08.2023 16:30 21,2 C 21,1 C 16,7 C 87 % 1018,9 hPa 0,0 l/m 0 min 0 min 172 W/m 6,4 km/h (2 Bft) 100,00 %
17.08.2023 16:32 21,2 C 21,1 C 16,7 C 88 % 1018,8 hPa 0,0 l/m 0 min 0 min 194 W/m 6,4 km/h (2 Bft) 100,00 %
17.08.2023 16:34 21,2 C 21,1 C 16,7 C 88 % 1018,8 hPa 0,0 l/m 0 min 0 min 208 W/m 9,7 km/h (2 Bft) 100,00 %
17.08.2023 16:36 21,1 C 21,7 C 17,2 C 88 % 1018,8 hPa 0,0 l/m 0 min 0 min 209 W/m 6,4 km/h (2 Bft) 100,00 %
17.08.2023 16:38 21,2 C 21,7 C 17,2 C 88 % 1018,8 hPa 0,0 l/m 0 min 0 min 206 W/m 6,4 km/h (2 Bft) 100,00 %
17.08.2023 16:40 21,2 C 21,7 C 17,2 C 88 % 1018,8 hPa 0,0 l/m 0 min 0 min 210 W/m 9,7 km/h (2 Bft) 100,00 %
17.08.2023 16:42 21,2 C 21,7 C 17,2 C 88 % 1018,7 hPa 0,0 l/m 0 min 0 min 217 W/m 3,2 km/h (1 Bft) 100,00 %
17.08.2023 16:44 21,2 C 21,7 C 17,2 C 88 % 1018,7 hPa 0,0 l/m 0 min 0 min 251 W/m 6,4 km/h (2 Bft) 97,87 %
17.08.2023 16:46 21,3 C 21,7 C 17,2 C 88 % 1018,7 hPa 0,0 l/m 2 min 0 min 333 W/m 12,9 km/h (3 Bft) 95,74 %
17.08.2023 16:48 21,3 C 22,2 C 17,2 C 88 % 1018,7 hPa 0,0 l/m 2 min 0 min 335 W/m 6,4 km/h (2 Bft) 97,87 %
17.08.2023 16:50 21,3 C 22,2 C 17,2 C 88 % 1018,7 hPa 0,0 l/m 0 min 0 min 274 W/m 6,4 km/h (2 Bft) 97,87 %
17.08.2023 16:52 21,3 C 22,2 C 17,2 C 88 % 1018,7 hPa 0,0 l/m 0 min 0 min 233 W/m 22,5 km/h (4 Bft) 97,83 %
17.08.2023 16:54 21,4 C 22,2 C 17,2 C 88 % 1018,7 hPa 0,0 l/m 0 min 0 min 221 W/m 6,4 km/h (2 Bft) 97,87 %
17.08.2023 16:56 21,4 C 22,2 C 17,2 C 88 % 1018,7 hPa 0,0 l/m 0 min 0 min 227 W/m 6,4 km/h (2 Bft) 93,62 %
17.08.2023 16:58 21,4 C 22,2 C 17,2 C 87 % 1018,7 hPa 0,0 l/m 0 min 0 min 211 W/m 12,9 km/h (3 Bft) 97,87 %
17.08.2023 17:00 21,5 C 22,2 C 17,2 C 87 % 1018,7 hPa 0,0 l/m 0 min 0 min 163 W/m 3,2 km/h (1 Bft) 97,87 %
17.08.2023 17:02 21,5 C 21,7 C 17,2 C 87 % 1018,6 hPa 0,0 l/m 0 min 0 min 139 W/m 6,4 km/h (2 Bft) 97,87 %
17.08.2023 17:04 21,5 C 21,1 C 17,2 C 87 % 1018,6 hPa 0,0 l/m 0 min 0 min 133 W/m 12,9 km/h (3 Bft) 97,87 %
17.08.2023 17:06 21,5 C 21,7 C 17,2 C 87 % 1018,6 hPa 0,0 l/m 0 min 0 min 127 W/m 0,0 km/h (0 Bft) 94,83 %
17.08.2023 17:08 21,5 C 21,1 C 17,2 C 87 % 1018,6 hPa 0,0 l/m 0 min 0 min 143 W/m 12,9 km/h (3 Bft) 97,14 %
17.08.2023 17:10 21,5 C 21,1 C 17,2 C 87 % 1018,5 hPa 0,0 l/m 0 min 0 min 179 W/m 6,4 km/h (2 Bft) 95,74 %
17.08.2023 17:12 21,4 C 21,1 C 17,2 C 87 % 1018,5 hPa 0,0 l/m 0 min 0 min 192 W/m 6,4 km/h (2 Bft) 93,62 %
17.08.2023 17:14 21,3 C 21,1 C 17,2 C 87 % 1018,5 hPa 0,0 l/m 0 min 0 min 166 W/m 6,4 km/h (2 Bft) 93,62 %
17.08.2023 17:16 21,4 C 21,7 C 17,2 C 87 % 1018,5 hPa 0,0 l/m 0 min 0 min 172 W/m 6,4 km/h (2 Bft) 95,74 %
17.08.2023 17:18 21,4 C 21,1 C 17,2 C 87 % 1018,5 hPa 0,0 l/m 0 min 0 min 185 W/m 16,1 km/h (3 Bft) 95,74 %
17.08.2023 17:20 21,3 C 21,1 C 17,2 C 87 % 1018,5 hPa 0,0 l/m 0 min 0 min 163 W/m 6,4 km/h (2 Bft) 91,30 %
17.08.2023 17:22 21,3 C 21,1 C 17,2 C 87 % 1018,5 hPa 0,0 l/m 0 min 0 min 135 W/m 9,7 km/h (2 Bft) 95,74 %
17.08.2023 17:24 21,3 C 21,1 C 17,2 C 87 % 1018,4 hPa 0,0 l/m 0 min 0 min 138 W/m 6,4 km/h (2 Bft) 93,62 %
17.08.2023 17:26 21,3 C 21,1 C 17,2 C 87 % 1018,4 hPa 0,0 l/m 0 min 0 min 155 W/m 6,4 km/h (2 Bft) 93,62 %
17.08.2023 17:28 21,3 C 21,1 C 17,2 C 87 % 1018,5 hPa 0,0 l/m 0 min 0 min 165 W/m 9,7 km/h (2 Bft) 93,62 %
17.08.2023 17:30 21,2 C 21,1 C 17,2 C 87 % 1018,5 hPa 0,0 l/m 0 min 0 min 171 W/m 6,4 km/h (2 Bft) 93,62 %
17.08.2023 17:32 21,2 C 21,1 C 17,2 C 87 % 1018,5 hPa 0,0 l/m 0 min 0 min 145 W/m 12,9 km/h (3 Bft) 95,74 %
17.08.2023 17:34 21,2 C 21,1 C 17,2 C 87 % 1018,5 hPa 0,0 l/m 0 min 0 min 127 W/m 9,7 km/h (2 Bft) 95,65 %
17.08.2023 17:36 21,2 C 20,6 C 17,2 C 87 % 1018,5 hPa 0,0 l/m 0 min 0 min 122 W/m 12,9 km/h (3 Bft) 93,62 %
17.08.2023 17:38 21,1 C 20,6 C 17,2 C 87 % 1018,5 hPa 0,0 l/m 0 min 0 min 128 W/m 12,9 km/h (3 Bft) 95,74 %
17.08.2023 17:40 21,1 C 20,6 C 17,2 C 87 % 1018,5 hPa 0,0 l/m 0 min 0 min 129 W/m 3,2 km/h (1 Bft) 95,74 %
17.08.2023 17:42 21,1 C 21,1 C 17,2 C 88 % 1018,4 hPa 0,0 l/m 0 min 0 min 122 W/m 3,2 km/h (1 Bft) 93,62 %
17.08.2023 17:44 21,2 C 21,1 C 17,2 C 88 % 1018,4 hPa 0,0 l/m 0 min 0 min 119 W/m 6,4 km/h (2 Bft) 97,87 %
17.08.2023 17:46 21,1 C 21,1 C 16,7 C 88 % 1018,3 hPa 0,0 l/m 0 min 0 min 124 W/m 9,7 km/h (2 Bft) 97,87 %
17.08.2023 17:48 21,1 C 21,1 C 16,7 C 88 % 1018,4 hPa 0,0 l/m 0 min 0 min 128 W/m 9,7 km/h (2 Bft) 95,74 %
17.08.2023 17:50 21,1 C 21,1 C 17,2 C 88 % 1018,4 hPa 0,0 l/m 0 min 0 min 137 W/m 6,4 km/h (2 Bft) 97,83 %
17.08.2023 17:52 21,1 C 21,1 C 17,2 C 88 % 1018,3 hPa 0,0 l/m 0 min 0 min 150 W/m 6,4 km/h (2 Bft) 97,87 %
17.08.2023 17:54 21,1 C 21,1 C 17,2 C 88 % 1018,3 hPa 0,0 l/m 0 min 0 min 164 W/m 12,9 km/h (3 Bft) 97,87 %
17.08.2023 17:56 21,1 C 21,1 C 17,2 C 88 % 1018,2 hPa 0,0 l/m 0 min 0 min 175 W/m 6,4 km/h (2 Bft) 97,87 %
17.08.2023 17:58 21,1 C 21,1 C 17,2 C 88 % 1018,1 hPa 0,0 l/m 0 min 0 min 205 W/m 6,4 km/h (2 Bft) 97,87 %
17.08.2023 18:00 21,1 C 21,7 C 17,2 C 88 % 1018,0 hPa 0,0 l/m 0 min 0 min 189 W/m 6,4 km/h (2 Bft) 97,87 %
17.08.2023 18:06 21,3 C 21,7 C 17,2 C 88 % 1018,0 hPa 0,0 l/m 0 min 0 min 181 W/m 9,7 km/h (2 Bft) 100,00 %
17.08.2023 18:08 21,3 C 21,7 C 17,2 C 87 % 1018,0 hPa 0,0 l/m 2 min 0 min 214 W/m 9,7 km/h (2 Bft) 97,06 %
17.08.2023 18:10 21,3 C 22,2 C 17,2 C 87 % 1018,0 hPa 0,0 l/m 2 min 0 min 248 W/m 6,4 km/h (2 Bft) 97,87 %
17.08.2023 18:12 21,3 C 22,8 C 17,2 C 87 % 1018,0 hPa 0,0 l/m 2 min 0 min 277 W/m 12,9 km/h (3 Bft) 97,87 %
17.08.2023 18:16 21,4 C 22,2 C 17,2 C 86 % 1017,9 hPa 0,0 l/m 4 min 0 min 238 W/m 12,9 km/h (3 Bft) 100,00 %
17.08.2023 18:18 21,4 C 21,7 C 17,2 C 86 % 1017,9 hPa 0,0 l/m 0 min 0 min 141 W/m 6,4 km/h (2 Bft) 100,00 %
17.08.2023 18:20 21,3 C 21,1 C 17,2 C 86 % 1017,9 hPa 0,0 l/m 0 min 0 min 149 W/m 6,4 km/h (2 Bft) 100,00 %
17.08.2023 18:22 21,3 C 21,7 C 17,2 C 86 % 1017,9 hPa 0,0 l/m 2 min 0 min 206 W/m 12,9 km/h (3 Bft) 100,00 %
17.08.2023 18:24 21,3 C 21,7 C 17,2 C 86 % 1017,9 hPa 0,0 l/m 0 min 0 min 180 W/m 16,1 km/h (3 Bft) 100,00 %
17.08.2023 18:26 21,3 C 21,7 C 17,2 C 87 % 1017,8 hPa 0,0 l/m 0 min 0 min 153 W/m 9,7 km/h (2 Bft) 100,00 %
17.08.2023 18:28 21,3 C 21,1 C 17,2 C 87 % 1017,8 hPa 0,0 l/m 0 min 0 min 130 W/m 12,9 km/h (3 Bft) 97,87 %
17.08.2023 18:30 21,2 C 21,1 C 17,2 C 87 % 1017,7 hPa 0,0 l/m 0 min 0 min 148 W/m 16,1 km/h (3 Bft) 100,00 %
17.08.2023 18:32 21,2 C 21,1 C 17,2 C 87 % 1017,8 hPa 0,0 l/m 0 min 0 min 117 W/m 9,7 km/h (2 Bft) 100,00 %
17.08.2023 18:34 21,2 C 21,1 C 17,2 C 87 % 1017,7 hPa 0,0 l/m 0 min 0 min 113 W/m 6,4 km/h (2 Bft) 100,00 %
17.08.2023 18:36 21,2 C 21,1 C 16,7 C 87 % 1017,7 hPa 0,0 l/m 0 min 0 min 151 W/m 12,9 km/h (3 Bft) 100,00 %
17.08.2023 18:38 21,2 C 21,1 C 16,7 C 87 % 1017,8 hPa 0,0 l/m 0 min 0 min 142 W/m 16,1 km/h (3 Bft) 100,00 %
17.08.2023 18:40 21,1 C 21,1 C 16,7 C 87 % 1017,8 hPa 0,0 l/m 0 min 0 min 118 W/m 12,9 km/h (3 Bft) 97,87 %
17.08.2023 18:42 21,1 C 21,1 C 16,7 C 87 % 1017,8 hPa 0,0 l/m 0 min 0 min 129 W/m 19,3 km/h (3 Bft) 100,00 %
17.08.2023 18:44 21,1 C 20,6 C 16,7 C 87 % 1017,8 hPa 0,0 l/m 0 min 0 min 115 W/m 12,9 km/h (3 Bft) 100,00 %
17.08.2023 18:46 21,1 C 20,6 C 16,7 C 87 % 1017,8 hPa 0,0 l/m 0 min 0 min 84 W/m 6,4 km/h (2 Bft) 100,00 %
17.08.2023 18:48 21,1 C 20,6 C 16,7 C 87 % 1017,8 hPa 0,0 l/m 0 min 0 min 92 W/m 6,4 km/h (2 Bft) 100,00 %
17.08.2023 18:50 21,0 C 20,6 C 16,7 C 87 % 1017,8 hPa 0,0 l/m 0 min 0 min 110 W/m 12,9 km/h (3 Bft) 100,00 %
17.08.2023 18:52 20,9 C 20,6 C 16,7 C 87 % 1017,8 hPa 0,0 l/m 0 min 0 min 100 W/m 12,9 km/h (3 Bft) 97,87 %
17.08.2023 18:54 20,9 C 20,6 C 16,7 C 87 % 1017,7 hPa 0,0 l/m 0 min 0 min 94 W/m 12,9 km/h (3 Bft) 100,00 %
17.08.2023 18:56 20,9 C 20,6 C 16,7 C 87 % 1017,8 hPa 0,0 l/m 0 min 0 min 103 W/m 12,9 km/h (3 Bft) 100,00 %
17.08.2023 18:58 20,9 C 20,6 C 16,7 C 87 % 1017,8 hPa 0,0 l/m 0 min 0 min 109 W/m 3,2 km/h (1 Bft) 100,00 %
17.08.2023 19:00 20,8 C 20,6 C 16,7 C 88 % 1017,8 hPa 0,0 l/m 0 min 0 min 94 W/m 9,7 km/h (2 Bft) 100,00 %
17.08.2023 19:02 20,8 C 20,6 C 16,7 C 88 % 1017,8 hPa 0,0 l/m 0 min 0 min 92 W/m 6,4 km/h (2 Bft) 95,74 %
17.08.2023 19:04 20,8 C 20,6 C 16,7 C 88 % 1017,8 hPa 0,0 l/m 0 min 0 min 105 W/m 12,9 km/h (3 Bft) 100,00 %
17.08.2023 19:06 20,8 C 20,0 C 16,7 C 88 % 1017,8 hPa 0,0 l/m 0 min 0 min 109 W/m 12,9 km/h (3 Bft) 98,31 %
17.08.2023 19:08 20,8 C 20,6 C 16,7 C 88 % 1017,9 hPa 0,0 l/m 0 min 0 min 98 W/m 12,9 km/h (3 Bft) 100,00 %
17.08.2023 19:10 20,8 C 20,6 C 16,7 C 88 % 1017,8 hPa 0,0 l/m 0 min 0 min 91 W/m 16,1 km/h (3 Bft) 100,00 %
17.08.2023 19:12 20,8 C 20,6 C 16,7 C 88 % 1017,8 hPa 0,0 l/m 0 min 0 min 83 W/m 9,7 km/h (2 Bft) 97,83 %
17.08.2023 19:14 20,7 C 20,6 C 16,7 C 88 % 1017,9 hPa 0,0 l/m 0 min 0 min 72 W/m 6,4 km/h (2 Bft) 97,87 %
17.08.2023 19:16 20,7 C 20,6 C 16,7 C 88 % 1017,9 hPa 0,0 l/m 0 min 0 min 66 W/m 3,2 km/h (1 Bft) 97,87 %
17.08.2023 19:18 20,7 C 20,0 C 16,7 C 88 % 1017,9 hPa 0,0 l/m 0 min 0 min 70 W/m 6,4 km/h (2 Bft) 97,87 %
17.08.2023 19:20 20,7 C 20,0 C 16,7 C 88 % 1017,8 hPa 0,0 l/m 0 min 0 min 69 W/m 12,9 km/h (3 Bft) 95,74 %
17.08.2023 19:22 20,7 C 20,0 C 16,7 C 88 % 1017,8 hPa 0,0 l/m 0 min 0 min 65 W/m 9,7 km/h (2 Bft) 95,74 %
17.08.2023 19:24 20,7 C 20,0 C 16,7 C 88 % 1017,8 hPa 0,0 l/m 0 min 0 min 66 W/m 12,9 km/h (3 Bft) 95,65 %
17.08.2023 19:26 20,7 C 20,0 C 16,1 C 88 % 1017,8 hPa 0,0 l/m 0 min 0 min 65 W/m 6,4 km/h (2 Bft) 95,74 %
17.08.2023 19:28 20,6 C 20,0 C 16,1 C 88 % 1017,8 hPa 0,0 l/m 0 min 0 min 59 W/m 12,9 km/h (3 Bft) 95,74 %
17.08.2023 19:30 20,6 C 20,0 C 16,1 C 88 % 1017,9 hPa 0,0 l/m 0 min 0 min 56 W/m 12,9 km/h (3 Bft) 95,74 %
17.08.2023 19:32 20,6 C 20,0 C 16,1 C 88 % 1017,9 hPa 0,0 l/m 0 min 0 min 51 W/m 12,9 km/h (3 Bft) 93,62 %
17.08.2023 19:34 20,6 C 20,0 C 16,1 C 88 % 1017,9 hPa 0,0 l/m 0 min 0 min 51 W/m 3,2 km/h (1 Bft) 93,62 %
17.08.2023 19:36 20,6 C 20,0 C 16,1 C 88 % 1017,9 hPa 0,0 l/m 0 min 0 min 44 W/m 6,4 km/h (2 Bft) 95,65 %
17.08.2023 19:38 20,6 C 20,0 C 16,1 C 88 % 1018,0 hPa 0,0 l/m 0 min 0 min 42 W/m 6,4 km/h (2 Bft) 95,74 %
17.08.2023 19:40 20,6 C 20,0 C 16,1 C 88 % 1018,0 hPa 0,0 l/m 0 min 0 min 40 W/m 16,1 km/h (3 Bft) 95,74 %
17.08.2023 19:42 20,5 C 20,0 C 16,1 C 89 % 1017,9 hPa 0,0 l/m 0 min 0 min 41 W/m 6,4 km/h (2 Bft) 97,87 %
17.08.2023 19:44 20,5 C 20,0 C 16,1 C 89 % 1018,0 hPa 0,0 l/m 0 min 0 min 42 W/m 12,9 km/h (3 Bft) 97,87 %
17.08.2023 19:46 20,4 C 20,0 C 16,1 C 89 % 1018,0 hPa 0,0 l/m 0 min 0 min 42 W/m 9,7 km/h (2 Bft) 97,87 %
17.08.2023 19:48 20,4 C 20,0 C 16,1 C 89 % 1018,0 hPa 0,0 l/m 0 min 0 min 35 W/m 9,7 km/h (2 Bft) 95,74 %
17.08.2023 19:50 20,4 C 20,0 C 16,1 C 89 % 1018,0 hPa 0,0 l/m 0 min 0 min 32 W/m 6,4 km/h (2 Bft) 97,83 %
17.08.2023 19:52 20,4 C 19,4 C 16,1 C 89 % 1018,0 hPa 0,0 l/m 0 min 0 min 29 W/m 12,9 km/h (3 Bft) 97,87 %
17.08.2023 19:54 20,4 C 19,4 C 16,1 C 89 % 1018,0 hPa 0,0 l/m 0 min 0 min 26 W/m 6,4 km/h (2 Bft) 95,74 %
17.08.2023 19:56 20,4 C 19,4 C 16,1 C 89 % 1018,1 hPa 0,0 l/m 0 min 0 min 22 W/m 6,4 km/h (2 Bft) 95,74 %
17.08.2023 19:58 20,4 C 19,4 C 16,1 C 89 % 1018,1 hPa 0,0 l/m 0 min 0 min 21 W/m 6,4 km/h (2 Bft) 97,87 %
17.08.2023 20:00 20,4 C 19,4 C 16,1 C 89 % 1018,1 hPa 0,0 l/m 0 min 0 min 21 W/m 3,2 km/h (1 Bft) 97,87 %
17.08.2023 20:02 20,4 C 19,4 C 16,1 C 89 % 1018,1 hPa 0,0 l/m 0 min 0 min 21 W/m 3,2 km/h (1 Bft) 97,83 %
17.08.2023 20:04 20,3 C 19,4 C 16,1 C 89 % 1018,2 hPa 0,0 l/m 0 min 0 min 20 W/m 9,7 km/h (2 Bft) 93,75 %
17.08.2023 20:10 20,3 C 19,4 C 16,1 C 90 % 1018,1 hPa 0,0 l/m 0 min 0 min 14 W/m 9,7 km/h (2 Bft) 96,00 %
17.08.2023 20:16 20,2 C 19,4 C 16,1 C 90 % 1018,1 hPa 0,0 l/m 0 min 0 min 14 W/m 12,9 km/h (3 Bft) 100,00 %
17.08.2023 20:18 20,2 C 19,4 C 16,1 C 90 % 1018,1 hPa 0,0 l/m 0 min 0 min 13 W/m 3,2 km/h (1 Bft) 93,62 %
17.08.2023 20:20 20,2 C 19,4 C 15,6 C 90 % 1018,1 hPa 0,0 l/m 0 min 0 min 12 W/m 6,4 km/h (2 Bft) 97,87 %
17.08.2023 20:22 20,2 C 19,4 C 15,6 C 90 % 1018,1 hPa 0,0 l/m 0 min 0 min 12 W/m 6,4 km/h (2 Bft) 100,00 %
17.08.2023 20:24 20,2 C 19,4 C 15,6 C 90 % 1018,1 hPa 0,0 l/m 0 min 0 min 12 W/m 6,4 km/h (2 Bft) 100,00 %
17.08.2023 20:26 20,2 C 19,4 C 15,6 C 91 % 1018,2 hPa 0,0 l/m 0 min 0 min 11 W/m 6,4 km/h (2 Bft) 100,00 %
17.08.2023 20:28 20,2 C 19,4 C 15,6 C 91 % 1018,2 hPa 0,0 l/m 0 min 0 min 10 W/m 6,4 km/h (2 Bft) 95,74 %
17.08.2023 20:30 20,2 C 19,4 C 15,6 C 91 % 1018,3 hPa 0,0 l/m 0 min 0 min 9 W/m 6,4 km/h (2 Bft) 100,00 %
17.08.2023 20:32 20,1 C 19,4 C 15,6 C 91 % 1018,3 hPa 0,0 l/m 0 min 0 min 7 W/m 6,4 km/h (2 Bft) 100,00 %
17.08.2023 20:34 20,1 C 19,4 C 15,6 C 91 % 1018,3 hPa 0,0 l/m 0 min 0 min 7 W/m 3,2 km/h (1 Bft) 100,00 %
17.08.2023 20:36 20,1 C 19,4 C 15,6 C 91 % 1018,3 hPa 0,0 l/m 0 min 0 min 7 W/m 6,4 km/h (2 Bft) 97,87 %
17.08.2023 20:38 20,1 C 19,4 C 15,6 C 91 % 1018,3 hPa 0,0 l/m 0 min 0 min 5 W/m 6,4 km/h (2 Bft) 97,83 %
17.08.2023 20:40 20,1 C 19,4 C 15,6 C 91 % 1018,4 hPa 0,0 l/m 0 min 0 min 5 W/m 3,2 km/h (1 Bft) 93,62 %
17.08.2023 20:42 20,1 C 19,4 C 15,6 C 91 % 1018,4 hPa 0,0 l/m 0 min 0 min 5 W/m 3,2 km/h (1 Bft) 97,87 %
17.08.2023 20:44 20,1 C 18,9 C 15,6 C 91 % 1018,4 hPa 0,0 l/m 0 min 0 min 5 W/m 3,2 km/h (1 Bft) 97,87 %
17.08.2023 20:46 20,0 C 18,9 C 15,6 C 91 % 1018,3 hPa 0,0 l/m 0 min 0 min 3 W/m 3,2 km/h (1 Bft) 97,87 %
17.08.2023 20:48 20,0 C 18,9 C 15,6 C 91 % 1018,3 hPa 0,0 l/m 0 min 0 min 0 W/m 3,2 km/h (1 Bft) 97,87 %
17.08.2023 20:50 19,9 C 18,9 C 15,6 C 92 % 1018,3 hPa 0,0 l/m 0 min 0 min 0 W/m 3,2 km/h (1 Bft) 97,87 %
17.08.2023 20:52 19,9 C 18,9 C 15,6 C 92 % 1018,3 hPa 0,0 l/m 0 min 0 min 0 W/m 6,4 km/h (2 Bft) 97,83 %
17.08.2023 20:54 19,9 C 18,9 C 15,6 C 92 % 1018,3 hPa 0,0 l/m 0 min 0 min 0 W/m 6,4 km/h (2 Bft) 95,74 %
17.08.2023 20:56 19,9 C 18,9 C 15,6 C 92 % 1018,3 hPa 0,0 l/m 0 min 0 min 0 W/m 3,2 km/h (1 Bft) 97,87 %
17.08.2023 20:58 19,9 C 18,9 C 15,6 C 92 % 1018,3 hPa 0,0 l/m 0 min 0 min 0 W/m 3,2 km/h (1 Bft) 97,87 %
17.08.2023 21:00 19,8 C 18,9 C 15,6 C 92 % 1018,3 hPa 0,0 l/m 0 min 0 min 0 W/m 3,2 km/h (1 Bft) 97,87 %
17.08.2023 21:02 19,8 C 18,9 C 15,6 C 92 % 1018,3 hPa 0,0 l/m 0 min 0 min 0 W/m 3,2 km/h (1 Bft) 97,87 %
17.08.2023 21:04 19,8 C 18,9 C 15,0 C 92 % 1018,3 hPa 0,0 l/m 0 min 0 min 0 W/m 6,4 km/h (2 Bft) 97,87 %
17.08.2023 21:06 19,7 C 18,9 C 15,0 C 92 % 1018,3 hPa 0,0 l/m 0 min 0 min 0 W/m 12,9 km/h (3 Bft) 96,36 %
17.08.2023 21:08 19,7 C 18,9 C 15,0 C 92 % 1018,4 hPa 0,0 l/m 0 min 0 min 0 W/m 3,2 km/h (1 Bft) 95,74 %
17.08.2023 21:10 19,7 C 18,9 C 15,0 C 92 % 1018,4 hPa 0,0 l/m 0 min 0 min 0 W/m 3,2 km/h (1 Bft) 95,74 %
17.08.2023 21:12 19,7 C 18,3 C 15,0 C 92 % 1018,3 hPa 0,0 l/m 0 min 0 min 0 W/m 3,2 km/h (1 Bft) 95,65 %
17.08.2023 21:14 19,6 C 18,3 C 15,0 C 92 % 1018,4 hPa 0,0 l/m 0 min 0 min 0 W/m 3,2 km/h (1 Bft) 95,74 %
17.08.2023 21:16 19,6 C 18,3 C 15,0 C 92 % 1018,3 hPa 0,0 l/m 0 min 0 min 0 W/m 3,2 km/h (1 Bft) 95,74 %
17.08.2023 21:18 19,6 C 18,3 C 15,0 C 92 % 1018,4 hPa 0,0 l/m 0 min 0 min 0 W/m 3,2 km/h (1 Bft) 93,62 %
17.08.2023 21:20 19,6 C 18,3 C 15,0 C 92 % 1018,4 hPa 0,0 l/m 0 min 0 min 0 W/m 0,0 km/h (0 Bft) 95,74 %
17.08.2023 21:22 19,6 C 18,3 C 15,0 C 92 % 1018,4 hPa 0,0 l/m 0 min 0 min 0 W/m 3,2 km/h (1 Bft) 97,87 %
17.08.2023 21:24 19,5 C 18,3 C 15,0 C 92 % 1018,4 hPa 0,0 l/m 0 min 0 min 0 W/m 3,2 km/h (1 Bft) 93,62 %
17.08.2023 21:26 19,5 C 18,3 C 15,0 C 93 % 1018,4 hPa 0,0 l/m 0 min 0 min 0 W/m 0,0 km/h (0 Bft) 97,83 %
17.08.2023 21:28 19,4 C 18,3 C 15,0 C 93 % 1018,4 hPa 0,0 l/m 0 min 0 min 0 W/m 0,0 km/h (0 Bft) 97,87 %
17.08.2023 21:30 19,4 C 18,3 C 14,4 C 93 % 1018,4 hPa 0,0 l/m 0 min 0 min 0 W/m 3,2 km/h (1 Bft) 97,22 %
17.08.2023 21:32 19,4 C 18,3 C 14,4 C 93 % 1018,5 hPa 0,0 l/m 0 min 0 min 0 W/m 0,0 km/h (0 Bft) 97,87 %
17.08.2023 21:34 19,3 C 18,3 C 14,4 C 93 % 1018,4 hPa 0,0 l/m 0 min 0 min 0 W/m 3,2 km/h (1 Bft) 97,87 %
17.08.2023 21:36 19,3 C 18,3 C 15,0 C 93 % 1018,5 hPa 0,0 l/m 0 min 0 min 0 W/m 0,0 km/h (0 Bft) 97,87 %
17.08.2023 21:38 19,3 C 18,3 C 15,0 C 93 % 1018,5 hPa 0,0 l/m 0 min 0 min 0 W/m 0,0 km/h (0 Bft) 97,87 %
17.08.2023 21:40 19,3 C 18,3 C 15,0 C 93 % 1018,5 hPa 0,0 l/m 0 min 0 min 0 W/m 0,0 km/h (0 Bft) 97,87 %
17.08.2023 21:42 19,3 C 18,3 C 15,0 C 93 % 1018,6 hPa 0,0 l/m 0 min 0 min 0 W/m 3,2 km/h (1 Bft) 97,83 %
17.08.2023 21:44 19,3 C 18,3 C 15,0 C 93 % 1018,6 hPa 0,0 l/m 0 min 0 min 0 W/m 0,0 km/h (0 Bft) 100,00 %
17.08.2023 21:46 19,3 C 18,3 C 15,0 C 93 % 1018,6 hPa 0,0 l/m 0 min 0 min 0 W/m 0,0 km/h (0 Bft) 100,00 %
17.08.2023 21:48 19,3 C 18,3 C 15,0 C 93 % 1018,6 hPa 0,0 l/m 0 min 0 min 0 W/m 0,0 km/h (0 Bft) 100,00 %
17.08.2023 21:50 19,2 C 18,3 C 15,0 C 93 % 1018,6 hPa 0,0 l/m 0 min 0 min 0 W/m 0,0 km/h (0 Bft) 100,00 %
17.08.2023 21:52 19,2 C 18,3 C 15,0 C 94 % 1018,6 hPa 0,0 l/m 0 min 0 min 0 W/m 3,2 km/h (1 Bft) 100,00 %
17.08.2023 21:54 19,2 C 18,3 C 15,0 C 94 % 1018,6 hPa 0,0 l/m 0 min 0 min 0 W/m 0,0 km/h (0 Bft) 97,87 %
17.08.2023 21:56 19,2 C 17,8 C 15,0 C 94 % 1018,6 hPa 0,0 l/m 0 min 0 min 0 W/m 0,0 km/h (0 Bft) 100,00 %
17.08.2023 21:58 19,2 C 17,8 C 15,0 C 94 % 1018,6 hPa 0,0 l/m 0 min 0 min 0 W/m 0,0 km/h (0 Bft) 100,00 %
17.08.2023 22:00 19,2 C 17,8 C 14,4 C 94 % 1018,6 hPa 0,0 l/m 0 min 0 min 0 W/m 0,0 km/h (0 Bft) 100,00 %
17.08.2023 22:02 19,1 C 17,8 C 14,4 C 94 % 1018,5 hPa 0,0 l/m 0 min 0 min 0 W/m 0,0 km/h (0 Bft) 100,00 %
17.08.2023 22:04 19,1 C 17,8 C 14,4 C 94 % 1018,5 hPa 0,0 l/m 0 min 0 min 0 W/m 0,0 km/h (0 Bft) 100,00 %
17.08.2023 22:06 19,1 C 17,8 C 14,4 C 94 % 1018,6 hPa 0,0 l/m 0 min 0 min 0 W/m 3,2 km/h (1 Bft) 100,00 %
17.08.2023 22:08 19,1 C 17,8 C 14,4 C 94 % 1018,6 hPa 0,0 l/m 0 min 0 min 0 W/m 0,0 km/h (0 Bft) 100,00 %
17.08.2023 22:10 19,1 C 17,8 C 14,4 C 94 % 1018,7 hPa 0,0 l/m 0 min 0 min 0 W/m 3,2 km/h (1 Bft) 95,74 %
17.08.2023 22:12 19,1 C 17,8 C 14,4 C 94 % 1018,6 hPa 0,0 l/m 0 min 0 min 0 W/m 3,2 km/h (1 Bft) 93,62 %
17.08.2023 22:14 19,0 C 17,8 C 14,4 C 94 % 1018,5 hPa 0,0 l/m 0 min 0 min 0 W/m 0,0 km/h (0 Bft) 97,87 %
17.08.2023 22:16 19,0 C 17,8 C 14,4 C 94 % 1018,5 hPa 0,0 l/m 0 min 0 min 0 W/m 3,2 km/h (1 Bft) 97,87 %
17.08.2023 22:18 18,9 C 17,8 C 14,4 C 94 % 1018,5 hPa 0,0 l/m 0 min 0 min 0 W/m 3,2 km/h (1 Bft) 97,87 %
17.08.2023 22:20 18,9 C 17,8 C 14,4 C 94 % 1018,5 hPa 0,0 l/m 0 min 0 min 0 W/m 0,0 km/h (0 Bft) 97,83 %
17.08.2023 22:22 18,9 C 17,8 C 14,4 C 94 % 1018,5 hPa 0,0 l/m 0 min 0 min 0 W/m 0,0 km/h (0 Bft) 97,87 %
17.08.2023 22:24 18,9 C 17,8 C 14,4 C 94 % 1018,6 hPa 0,0 l/m 0 min 0 min 0 W/m 0,0 km/h (0 Bft) 97,87 %
17.08.2023 22:26 18,9 C 17,2 C 14,4 C 94 % 1018,6 hPa 0,0 l/m 0 min 0 min 0 W/m 0,0 km/h (0 Bft) 95,74 %
17.08.2023 22:28 18,9 C 17,2 C 14,4 C 94 % 1018,6 hPa 0,0 l/m 0 min 0 min 0 W/m 0,0 km/h (0 Bft) 95,74 %
17.08.2023 22:30 18,8 C 17,2 C 13,9 C 94 % 1018,6 hPa 0,0 l/m 0 min 0 min 0 W/m 0,0 km/h (0 Bft) 97,87 %
17.08.2023 22:32 18,8 C 17,2 C 13,9 C 94 % 1018,6 hPa 0,0 l/m 0 min 0 min 0 W/m 0,0 km/h (0 Bft) 95,65 %
17.08.2023 22:34 18,8 C 17,2 C 13,9 C 94 % 1018,6 hPa 0,0 l/m 0 min 0 min 0 W/m 0,0 km/h (0 Bft) 97,87 %
17.08.2023 22:36 18,8 C 17,2 C 13,9 C 94 % 1018,6 hPa 0,0 l/m 0 min 0 min 0 W/m 0,0 km/h (0 Bft) 97,87 %
17.08.2023 22:38 18,7 C 17,2 C 13,9 C 94 % 1018,6 hPa 0,0 l/m 0 min 0 min 0 W/m 0,0 km/h (0 Bft) 97,87 %
17.08.2023 22:40 18,7 C 17,2 C 13,9 C 94 % 1018,6 hPa 0,0 l/m 0 min 0 min 0 W/m 3,2 km/h (1 Bft) 97,87 %
17.08.2023 22:42 18,7 C 17,2 C 13,9 C 94 % 1018,6 hPa 0,0 l/m 0 min 0 min 0 W/m 0,0 km/h (0 Bft) 97,87 %
17.08.2023 22:44 18,7 C 17,2 C 13,9 C 94 % 1018,6 hPa 0,0 l/m 0 min 0 min 0 W/m 0,0 km/h (0 Bft) 96,30 %
17.08.2023 22:46 18,7 C 17,2 C 13,9 C 94 % 1018,5 hPa 0,0 l/m 0 min 0 min 0 W/m 0,0 km/h (0 Bft) 97,83 %
17.08.2023 22:48 18,6 C 17,2 C 13,9 C 94 % 1018,5 hPa 0,0 l/m 0 min 0 min 0 W/m 0,0 km/h (0 Bft) 95,74 %
17.08.2023 22:50 18,6 C 17,2 C 13,9 C 95 % 1018,4 hPa 0,0 l/m 0 min 0 min 0 W/m 3,2 km/h (1 Bft) 97,87 %
17.08.2023 22:52 18,6 C 17,2 C 13,9 C 95 % 1018,4 hPa 0,0 l/m 0 min 0 min 0 W/m 0,0 km/h (0 Bft) 95,74 %
17.08.2023 22:54 18,6 C 17,2 C 13,9 C 95 % 1018,4 hPa 0,0 l/m 0 min 0 min 0 W/m 3,2 km/h (1 Bft) 95,74 %
17.08.2023 22:56 18,6 C 17,2 C 13,9 C 95 % 1018,4 hPa 0,0 l/m 0 min 0 min 0 W/m 0,0 km/h (0 Bft) 91,49 %
17.08.2023 22:58 18,6 C 17,2 C 13,9 C 95 % 1018,4 hPa 0,0 l/m 0 min 0 min 0 W/m 0,0 km/h (0 Bft) 93,62 %
17.08.2023 23:00 18,5 C 17,2 C 13,9 C 95 % 1018,4 hPa 0,0 l/m 0 min 0 min 0 W/m 0,0 km/h (0 Bft) 97,83 %
17.08.2023 23:02 18,5 C 17,2 C 13,9 C 95 % 1018,4 hPa 0,0 l/m 0 min 0 min 0 W/m 0,0 km/h (0 Bft) 95,74 %
17.08.2023 23:04 18,4 C 17,2 C 13,9 C 95 % 1018,4 hPa 0,0 l/m 0 min 0 min 0 W/m 0,0 km/h (0 Bft) 97,87 %
17.08.2023 23:06 18,4 C 17,2 C 13,9 C 95 % 1018,4 hPa 0,0 l/m 0 min 0 min 0 W/m 0,0 km/h (0 Bft) 93,33 %
17.08.2023 23:08 18,4 C 17,2 C 13,9 C 95 % 1018,4 hPa 0,0 l/m 0 min 0 min 0 W/m 0,0 km/h (0 Bft) 97,14 %
17.08.2023 23:10 18,4 C 17,2 C 13,9 C 95 % 1018,4 hPa 0,0 l/m 0 min 0 min 0 W/m 0,0 km/h (0 Bft) 95,74 %
17.08.2023 23:12 18,4 C 17,2 C 13,9 C 95 % 1018,4 hPa 0,0 l/m 0 min 0 min 0 W/m 0,0 km/h (0 Bft) 93,48 %
17.08.2023 23:14 18,4 C 17,2 C 13,9 C 95 % 1018,4 hPa 0,0 l/m 0 min 0 min 0 W/m 0,0 km/h (0 Bft) 93,62 %
17.08.2023 23:16 18,3 C 17,2 C 13,9 C 95 % 1018,4 hPa 0,0 l/m 0 min 0 min 0 W/m 0,0 km/h (0 Bft) 95,74 %
17.08.2023 23:18 18,3 C 17,2 C 13,9 C 95 % 1018,4 hPa 0,0 l/m 0 min 0 min 0 W/m 3,2 km/h (1 Bft) 95,74 %
17.08.2023 23:20 18,3 C 17,2 C 13,9 C 95 % 1018,4 hPa 0,0 l/m 0 min 0 min 0 W/m 0,0 km/h (0 Bft) 95,74 %
17.08.2023 23:22 18,3 C 17,2 C 13,9 C 95 % 1018,5 hPa 0,0 l/m 0 min 0 min 0 W/m 0,0 km/h (0 Bft) 95,74 %
17.08.2023 23:24 18,3 C 17,2 C 13,9 C 95 % 1018,4 hPa 0,0 l/m 0 min 0 min 0 W/m 3,2 km/h (1 Bft) 95,74 %
17.08.2023 23:26 18,3 C 17,2 C 13,9 C 96 % 1018,5 hPa 0,0 l/m 0 min 0 min 0 W/m 0,0 km/h (0 Bft) 95,65 %
17.08.2023 23:28 18,3 C 17,2 C 13,9 C 96 % 1018,5 hPa 0,0 l/m 0 min 0 min 0 W/m 0,0 km/h (0 Bft) 97,87 %
17.08.2023 23:30 18,3 C 17,2 C 13,9 C 96 % 1018,5 hPa 0,0 l/m 0 min 0 min 0 W/m 0,0 km/h (0 Bft) 97,87 %
17.08.2023 23:32 18,3 C 17,2 C 13,9 C 96 % 1018,5 hPa 0,0 l/m 0 min 0 min 0 W/m 6,4 km/h (2 Bft) 97,87 %
17.08.2023 23:34 18,3 C 17,2 C 13,9 C 96 % 1018,5 hPa 0,0 l/m 0 min 0 min 0 W/m 3,2 km/h (1 Bft) 97,87 %
17.08.2023 23:36 18,3 C 17,2 C 13,9 C 96 % 1018,5 hPa 0,0 l/m 0 min 0 min 0 W/m 3,2 km/h (1 Bft) 95,74 %
17.08.2023 23:38 18,3 C 17,2 C 13,9 C 96 % 1018,5 hPa 0,0 l/m 0 min 0 min 0 W/m 0,0 km/h (0 Bft) 97,83 %
17.08.2023 23:40 18,3 C 17,2 C 14,4 C 96 % 1018,5 hPa 0,0 l/m 0 min 0 min 0 W/m 6,4 km/h (2 Bft) 97,87 %
17.08.2023 23:42 18,3 C 17,2 C 14,4 C 96 % 1018,5 hPa 0,0 l/m 0 min 0 min 0 W/m 0,0 km/h (0 Bft) 97,87 %
17.08.2023 23:44 18,3 C 17,2 C 14,4 C 96 % 1018,5 hPa 0,0 l/m 0 min 0 min 0 W/m 3,2 km/h (1 Bft) 97,87 %
17.08.2023 23:46 18,3 C 17,8 C 14,4 C 96 % 1018,4 hPa 0,0 l/m 0 min 0 min 0 W/m 3,2 km/h (1 Bft) 97,87 %
17.08.2023 23:48 18,4 C 17,8 C 14,4 C 96 % 1018,4 hPa 0,0 l/m 0 min 0 min 0 W/m 6,4 km/h (2 Bft) 97,87 %
17.08.2023 23:50 18,4 C 17,8 C 14,4 C 96 % 1018,4 hPa 0,0 l/m 0 min 0 min 0 W/m 12,9 km/h (3 Bft) 95,74 %
17.08.2023 23:52 18,4 C 17,8 C 14,4 C 96 % 1018,4 hPa 0,0 l/m 0 min 0 min 0 W/m 3,2 km/h (1 Bft) 95,65 %
17.08.2023 23:54 18,4 C 17,8 C 14,4 C 96 % 1018,4 hPa 0,0 l/m 0 min 0 min 0 W/m 0,0 km/h (0 Bft) 100,00 %
17.08.2023 23:56 18,4 C 17,8 C 14,4 C 96 % 1018,3 hPa 0,0 l/m 0 min 0 min 0 W/m 0,0 km/h (0 Bft) 100,00 %
17.08.2023 23:58 18,4 C 17,8 C 14,4 C 96 % 1018,4 hPa 0,0 l/m 0 min 0 min 0 W/m 6,4 km/h (2 Bft) 100,00 %
_ Min-Zeit 06:04 05:22 05:26 18:16 18:30 - - - - 04:26 00:44
Minimum _ 16,4 C 15,6 C 12,2 C 86 % 1017,7 hPa - - - - 0,0 km/h (0 Bft) 89,36 %
_ Max-Zeit 17:00 18:12 15:24 04:14 10:14 01:58 18:16 00:08 16:48 05:56 01:10
Maximum _ 21,5 C 22,8 C 17,2 C 99 % 1019,8 hPa 1,2 l/m 4 min 4 min 335 W/m 25,7 km/h
SO (4 Bft)
100,00 %
Durchschnitt _ 18,7 C 18,1 C 14,5 C 94 % 1019,0 hPa #20,0 l/m #16 min. #2:34 h 121 W/m 6,4 km/h (2 Bft) 97,50 %
© 2023 W. Hausmann